Wetterdaten: Donnerstag, 10.10.2013
Datum Zeit Temp. Aussen +5cm Feuchte Auss Luftdruck Regen Sonnenschein Regendauer UV Solar Windben
10.10.2013 00:00 11,3 C 10,0 C 97 % 1008,8 hPa 0,0 l/m 0 min 2 min 0,0 UV-I 0 W/m 5,1 km/h (1 Bft)
10.10.2013 00:02 11,3 C 10,0 C 97 % 1008,8 hPa 0,0 l/m 0 min 2 min 0,0 UV-I 0 W/m 2,6 km/h (1 Bft)
10.10.2013 00:06 11,3 C 10,0 C 97 % 1008,8 hPa 0,0 l/m 0 min 2 min 0,0 UV-I 0 W/m 12,9 km/h (3 Bft)
10.10.2013 00:08 11,3 C 10,0 C 97 % 1008,7 hPa 0,2 l/m 0 min 2 min 0,0 UV-I 0 W/m 0,0 km/h (0 Bft)
10.10.2013 00:10 11,3 C 10,0 C 97 % 1008,6 hPa 0,0 l/m 0 min 2 min 0,0 UV-I 0 W/m 0,0 km/h (0 Bft)
10.10.2013 00:12 11,3 C 10,0 C 97 % 1008,6 hPa 0,0 l/m 0 min 2 min 0,0 UV-I 0 W/m 0,0 km/h (0 Bft)
10.10.2013 00:14 11,3 C 10,0 C 97 % 1008,6 hPa 0,2 l/m 0 min 2 min 0,0 UV-I 0 W/m 0,0 km/h (0 Bft)
10.10.2013 00:16 11,3 C 10,0 C 97 % 1008,6 hPa 0,0 l/m 0 min 2 min 0,0 UV-I 0 W/m 2,6 km/h (1 Bft)
10.10.2013 00:18 11,2 C 10,0 C 97 % 1008,5 hPa 0,0 l/m 0 min 2 min 0,0 UV-I 0 W/m 0,0 km/h (0 Bft)
10.10.2013 00:20 11,2 C 10,0 C 97 % 1008,5 hPa 0,0 l/m 0 min 2 min 0,0 UV-I 0 W/m 0,0 km/h (0 Bft)
10.10.2013 00:22 11,2 C 10,0 C 97 % 1008,4 hPa 0,0 l/m 0 min 2 min 0,0 UV-I 0 W/m 0,0 km/h (0 Bft)
10.10.2013 00:24 11,2 C 10,0 C 97 % 1008,5 hPa 0,2 l/m 0 min 2 min 0,0 UV-I 0 W/m 0,0 km/h (0 Bft)
10.10.2013 00:26 11,2 C 10,0 C 97 % 1008,5 hPa 0,0 l/m 0 min 2 min 0,0 UV-I 0 W/m 0,0 km/h (0 Bft)
10.10.2013 00:28 11,2 C 10,0 C 97 % 1008,4 hPa 0,0 l/m 0 min 2 min 0,0 UV-I 0 W/m 0,0 km/h (0 Bft)
10.10.2013 00:30 11,1 C 10,0 C 97 % 1008,4 hPa 0,2 l/m 0 min 2 min 0,0 UV-I 0 W/m 0,0 km/h (0 Bft)
10.10.2013 00:32 11,1 C 10,0 C 97 % 1008,5 hPa 0,0 l/m 0 min 2 min 0,0 UV-I 0 W/m 0,0 km/h (0 Bft)
10.10.2013 00:34 11,1 C 10,0 C 97 % 1008,4 hPa 0,0 l/m 0 min 2 min 0,0 UV-I 0 W/m 0,0 km/h (0 Bft)
10.10.2013 00:36 11,1 C 10,0 C 97 % 1008,4 hPa 0,0 l/m 0 min 2 min 0,0 UV-I 0 W/m 0,0 km/h (0 Bft)
10.10.2013 00:38 11,0 C 10,0 C 97 % 1008,4 hPa 0,0 l/m 0 min 2 min 0,0 UV-I 0 W/m 0,0 km/h (0 Bft)
10.10.2013 00:40 11,1 C 10,0 C 97 % 1008,5 hPa 0,0 l/m 0 min 2 min 0,0 UV-I 0 W/m 0,0 km/h (0 Bft)
10.10.2013 00:42 11,0 C 10,0 C 97 % 1008,6 hPa 0,0 l/m 0 min 2 min 0,0 UV-I 0 W/m 0,0 km/h (0 Bft)
10.10.2013 00:44 11,0 C 10,0 C 97 % 1008,5 hPa 0,0 l/m 0 min 2 min 0,0 UV-I 0 W/m 0,0 km/h (0 Bft)
10.10.2013 00:46 11,0 C 10,0 C 97 % 1008,5 hPa 0,2 l/m 0 min 2 min 0,0 UV-I 0 W/m 0,0 km/h (0 Bft)
10.10.2013 00:48 11,1 C 10,0 C 97 % 1008,5 hPa 0,2 l/m 0 min 2 min 0,0 UV-I 0 W/m 0,0 km/h (0 Bft)
10.10.2013 00:50 11,0 C 10,0 C 97 % 1008,6 hPa 0,4 l/m 0 min 2 min 0,0 UV-I 0 W/m 15,4 km/h (3 Bft)
10.10.2013 00:52 10,9 C 10,0 C 97 % 1008,6 hPa 0,0 l/m 0 min 2 min 0,0 UV-I 0 W/m 12,9 km/h (3 Bft)
10.10.2013 00:54 10,8 C 9,4 C 97 % 1008,6 hPa 0,2 l/m 0 min 2 min 0,0 UV-I 0 W/m 23,2 km/h (4 Bft)
10.10.2013 00:56 10,7 C 9,4 C 97 % 1008,7 hPa 0,2 l/m 0 min 2 min 0,0 UV-I 0 W/m 20,6 km/h (4 Bft)
10.10.2013 00:58 10,5 C 8,9 C 97 % 1008,7 hPa 0,0 l/m 0 min 2 min 0,0 UV-I 0 W/m 28,3 km/h (4 Bft)
10.10.2013 01:00 10,3 C 8,9 C 97 % 1008,7 hPa 0,0 l/m 0 min 2 min 0,0 UV-I 0 W/m 18,0 km/h (3 Bft)
10.10.2013 01:02 10,2 C 8,3 C 97 % 1008,7 hPa 0,2 l/m 0 min 2 min 0,0 UV-I 0 W/m 23,2 km/h (4 Bft)
10.10.2013 01:06 9,9 C 8,3 C 97 % 1008,7 hPa 0,0 l/m 0 min 2 min 0,0 UV-I 0 W/m 15,4 km/h (3 Bft)
10.10.2013 01:08 9,9 C 8,3 C 97 % 1008,7 hPa 0,2 l/m 0 min 2 min 0,0 UV-I 0 W/m 18,0 km/h (3 Bft)
10.10.2013 01:10 9,8 C 8,3 C 97 % 1008,7 hPa 0,0 l/m 0 min 2 min 0,0 UV-I 0 W/m 10,3 km/h (2 Bft)
10.10.2013 01:12 9,8 C 8,3 C 97 % 1008,8 hPa 0,0 l/m 0 min 2 min 0,0 UV-I 0 W/m 10,3 km/h (2 Bft)
10.10.2013 01:14 9,7 C 8,3 C 97 % 1008,8 hPa 0,2 l/m 0 min 2 min 0,0 UV-I 0 W/m 12,9 km/h (3 Bft)
10.10.2013 01:16 9,7 C 8,3 C 97 % 1008,7 hPa 0,0 l/m 0 min 2 min 0,0 UV-I 0 W/m 7,7 km/h (2 Bft)
10.10.2013 01:18 9,7 C 8,3 C 97 % 1008,8 hPa 0,0 l/m 0 min 2 min 0,0 UV-I 0 W/m 12,9 km/h (3 Bft)
10.10.2013 01:20 9,7 C 8,3 C 97 % 1008,8 hPa 0,2 l/m 0 min 2 min 0,0 UV-I 0 W/m 15,4 km/h (3 Bft)
10.10.2013 01:22 9,7 C 8,3 C 97 % 1008,8 hPa 0,0 l/m 0 min 2 min 0,0 UV-I 0 W/m 0,0 km/h (0 Bft)
10.10.2013 01:24 9,7 C 8,3 C 97 % 1008,8 hPa 0,0 l/m 0 min 2 min 0,0 UV-I 0 W/m 7,7 km/h (2 Bft)
10.10.2013 01:26 9,6 C 8,3 C 97 % 1008,8 hPa 0,0 l/m 0 min 2 min 0,0 UV-I 0 W/m 2,6 km/h (1 Bft)
10.10.2013 01:28 9,6 C 8,3 C 97 % 1008,9 hPa 0,2 l/m 0 min 2 min 0,0 UV-I 0 W/m 0,0 km/h (0 Bft)
10.10.2013 01:30 9,6 C 8,3 C 97 % 1008,9 hPa 0,0 l/m 0 min 2 min 0,0 UV-I 0 W/m 7,7 km/h (2 Bft)
10.10.2013 01:32 9,6 C 8,3 C 97 % 1008,9 hPa 0,0 l/m 0 min 2 min 0,0 UV-I 0 W/m 7,7 km/h (2 Bft)
10.10.2013 01:34 9,6 C 8,3 C 97 % 1008,9 hPa 0,2 l/m 0 min 2 min 0,0 UV-I 0 W/m 0,0 km/h (0 Bft)
10.10.2013 01:36 9,6 C 8,3 C 97 % 1008,9 hPa 0,0 l/m 0 min 2 min 0,0 UV-I 0 W/m 0,0 km/h (0 Bft)
10.10.2013 01:38 9,6 C 8,9 C 97 % 1008,9 hPa 0,0 l/m 0 min 2 min 0,0 UV-I 0 W/m 5,1 km/h (1 Bft)
10.10.2013 01:40 9,6 C 8,3 C 97 % 1008,9 hPa 0,0 l/m 0 min 2 min 0,0 UV-I 0 W/m 10,3 km/h (2 Bft)
10.10.2013 01:42 9,6 C 8,3 C 97 % 1008,8 hPa 0,0 l/m 0 min 2 min 0,0 UV-I 0 W/m 10,3 km/h (2 Bft)
10.10.2013 01:44 9,6 C 8,3 C 97 % 1008,8 hPa 0,0 l/m 0 min 2 min 0,0 UV-I 0 W/m 2,6 km/h (1 Bft)
10.10.2013 01:46 9,5 C 8,3 C 97 % 1008,8 hPa 0,0 l/m 0 min 2 min 0,0 UV-I 0 W/m 7,7 km/h (2 Bft)
10.10.2013 01:48 9,5 C 8,3 C 97 % 1008,8 hPa 0,0 l/m 0 min 2 min 0,0 UV-I 0 W/m 2,6 km/h (1 Bft)
10.10.2013 01:50 9,5 C 8,3 C 97 % 1008,9 hPa 0,0 l/m 0 min 2 min 0,0 UV-I 0 W/m 0,0 km/h (0 Bft)
10.10.2013 01:52 9,5 C 8,3 C 97 % 1008,8 hPa 0,2 l/m 0 min 2 min 0,0 UV-I 0 W/m 2,6 km/h (1 Bft)
10.10.2013 01:54 9,4 C 8,3 C 97 % 1008,8 hPa 0,0 l/m 0 min 2 min 0,0 UV-I 0 W/m 2,6 km/h (1 Bft)
10.10.2013 01:56 9,4 C 8,3 C 97 % 1008,8 hPa 0,2 l/m 0 min 2 min 0,0 UV-I 0 W/m 0,0 km/h (0 Bft)
10.10.2013 01:58 9,4 C 8,3 C 97 % 1008,9 hPa 0,0 l/m 0 min 2 min 0,0 UV-I 0 W/m 0,0 km/h (0 Bft)
10.10.2013 02:00 9,4 C 8,3 C 97 % 1008,8 hPa 0,2 l/m 0 min 2 min 0,0 UV-I 0 W/m 0,0 km/h (0 Bft)
10.10.2013 02:02 9,3 C 8,3 C 97 % 1008,8 hPa 0,0 l/m 0 min 2 min 0,0 UV-I 0 W/m 0,0 km/h (0 Bft)
10.10.2013 02:06 9,3 C 8,3 C 97 % 1008,9 hPa 0,0 l/m 0 min 2 min 0,0 UV-I 0 W/m 0,0 km/h (0 Bft)
10.10.2013 02:08 9,3 C 8,3 C 97 % 1008,9 hPa 0,2 l/m 0 min 2 min 0,0 UV-I 0 W/m 0,0 km/h (0 Bft)
10.10.2013 02:10 9,3 C 8,3 C 97 % 1008,9 hPa 0,0 l/m 0 min 2 min 0,0 UV-I 0 W/m 2,6 km/h (1 Bft)
10.10.2013 02:12 9,3 C 8,3 C 97 % 1009,1 hPa 0,0 l/m 0 min 2 min 0,0 UV-I 0 W/m 0,0 km/h (0 Bft)
10.10.2013 02:14 9,3 C 8,3 C 97 % 1009,1 hPa 0,0 l/m 0 min 2 min 0,0 UV-I 0 W/m 0,0 km/h (0 Bft)
10.10.2013 02:16 9,3 C 8,3 C 97 % 1008,9 hPa 0,0 l/m 0 min 2 min 0,0 UV-I 0 W/m 0,0 km/h (0 Bft)
10.10.2013 02:18 9,3 C 8,3 C 97 % 1009,0 hPa 0,0 l/m 0 min 2 min 0,0 UV-I 0 W/m 0,0 km/h (0 Bft)
10.10.2013 02:20 9,3 C 8,3 C 97 % 1009,0 hPa 0,0 l/m 0 min 2 min 0,0 UV-I 0 W/m 2,6 km/h (1 Bft)
10.10.2013 02:22 9,3 C 8,3 C 97 % 1009,0 hPa 0,0 l/m 0 min 2 min 0,0 UV-I 0 W/m 2,6 km/h (1 Bft)
10.10.2013 02:24 9,2 C 8,3 C 97 % 1009,0 hPa 0,0 l/m 0 min 2 min 0,0 UV-I 0 W/m 0,0 km/h (0 Bft)
10.10.2013 02:26 9,2 C 8,3 C 97 % 1009,0 hPa 0,0 l/m 0 min 2 min 0,0 UV-I 0 W/m 0,0 km/h (0 Bft)
10.10.2013 02:28 9,2 C 8,3 C 97 % 1009,0 hPa 0,2 l/m 0 min 2 min 0,0 UV-I 0 W/m 0,0 km/h (0 Bft)
10.10.2013 02:30 9,2 C 8,3 C 97 % 1009,1 hPa 0,0 l/m 0 min 2 min 0,0 UV-I 0 W/m 0,0 km/h (0 Bft)
10.10.2013 02:32 9,1 C 8,3 C 97 % 1008,9 hPa 0,0 l/m 0 min 2 min 0,0 UV-I 0 W/m 0,0 km/h (0 Bft)
10.10.2013 02:34 9,1 C 8,3 C 97 % 1008,8 hPa 0,0 l/m 0 min 2 min 0,0 UV-I 0 W/m 0,0 km/h (0 Bft)
10.10.2013 02:36 9,0 C 8,3 C 97 % 1008,9 hPa 0,2 l/m 0 min 2 min 0,0 UV-I 0 W/m 0,0 km/h (0 Bft)
10.10.2013 02:38 8,9 C 8,3 C 97 % 1008,9 hPa 0,0 l/m 0 min 2 min 0,0 UV-I 0 W/m 0,0 km/h (0 Bft)
10.10.2013 02:40 8,9 C 7,8 C 97 % 1008,9 hPa 0,0 l/m 0 min 2 min 0,0 UV-I 0 W/m 0,0 km/h (0 Bft)
10.10.2013 02:42 8,8 C 7,8 C 97 % 1009,0 hPa 0,0 l/m 0 min 2 min 0,0 UV-I 0 W/m 0,0 km/h (0 Bft)
10.10.2013 02:44 8,8 C 7,8 C 97 % 1009,0 hPa 0,0 l/m 0 min 2 min 0,0 UV-I 0 W/m 0,0 km/h (0 Bft)
10.10.2013 02:46 8,8 C 7,8 C 97 % 1009,0 hPa 0,2 l/m 0 min 2 min 0,0 UV-I 0 W/m 0,0 km/h (0 Bft)
10.10.2013 02:48 8,7 C 7,8 C 97 % 1009,0 hPa 0,0 l/m 0 min 2 min 0,0 UV-I 0 W/m 0,0 km/h (0 Bft)
10.10.2013 02:50 8,7 C 7,8 C 97 % 1009,0 hPa 0,0 l/m 0 min 2 min 0,0 UV-I 0 W/m 2,6 km/h (1 Bft)
10.10.2013 02:52 8,7 C 7,8 C 97 % 1008,9 hPa 0,0 l/m 0 min 2 min 0,0 UV-I 0 W/m 0,0 km/h (0 Bft)
10.10.2013 02:54 8,6 C 7,8 C 97 % 1008,9 hPa 0,0 l/m 0 min 2 min 0,0 UV-I 0 W/m 0,0 km/h (0 Bft)
10.10.2013 02:56 8,6 C 7,8 C 97 % 1008,8 hPa 0,0 l/m 0 min 2 min 0,0 UV-I 0 W/m 0,0 km/h (0 Bft)
10.10.2013 02:58 8,5 C 7,8 C 97 % 1008,9 hPa 0,2 l/m 0 min 2 min 0,0 UV-I 0 W/m 0,0 km/h (0 Bft)
10.10.2013 03:00 8,4 C 7,8 C 97 % 1008,9 hPa 0,0 l/m 0 min 2 min 0,0 UV-I 0 W/m 5,1 km/h (1 Bft)
10.10.2013 03:02 8,4 C 7,8 C 97 % 1008,8 hPa 0,0 l/m 0 min 2 min 0,0 UV-I 0 W/m 0,0 km/h (0 Bft)
10.10.2013 03:05 8,4 C 7,8 C 97 % 1008,8 hPa 0,2 l/m 0 min 2 min 0,0 UV-I 0 W/m 0,0 km/h (0 Bft)
10.10.2013 03:06 8,4 C 7,8 C 97 % 1008,7 hPa 0,2 l/m 0 min 1 min 0,0 UV-I 0 W/m 0,0 km/h (0 Bft)
10.10.2013 03:08 8,4 C 7,8 C 97 % 1008,5 hPa 0,0 l/m 0 min 2 min 0,0 UV-I 0 W/m 0,0 km/h (0 Bft)
10.10.2013 03:10 8,4 C 7,8 C 97 % 1008,5 hPa 0,0 l/m 0 min 2 min 0,0 UV-I 0 W/m 0,0 km/h (0 Bft)
10.10.2013 03:12 8,4 C 7,8 C 97 % 1008,4 hPa 0,0 l/m 0 min 2 min 0,0 UV-I 0 W/m 0,0 km/h (0 Bft)
10.10.2013 03:14 8,4 C 7,8 C 97 % 1008,4 hPa 0,0 l/m 0 min 2 min 0,0 UV-I 0 W/m 0,0 km/h (0 Bft)
10.10.2013 03:16 8,4 C 7,8 C 97 % 1008,4 hPa 0,0 l/m 0 min 2 min 0,0 UV-I 0 W/m 0,0 km/h (0 Bft)
10.10.2013 03:18 8,4 C 7,8 C 97 % 1008,4 hPa 0,0 l/m 0 min 2 min 0,0 UV-I 0 W/m 0,0 km/h (0 Bft)
10.10.2013 03:20 8,4 C 7,8 C 97 % 1008,4 hPa 0,0 l/m 0 min 2 min 0,0 UV-I 0 W/m 0,0 km/h (0 Bft)
10.10.2013 03:22 8,4 C 7,8 C 97 % 1008,5 hPa 0,0 l/m 0 min 2 min 0,0 UV-I 0 W/m 0,0 km/h (0 Bft)
10.10.2013 03:24 8,4 C 7,8 C 97 % 1008,5 hPa 0,0 l/m 0 min 2 min 0,0 UV-I 0 W/m 2,6 km/h (1 Bft)
10.10.2013 03:26 8,4 C 7,8 C 97 % 1008,5 hPa 0,0 l/m 0 min 2 min 0,0 UV-I 0 W/m 0,0 km/h (0 Bft)
10.10.2013 03:28 8,4 C 7,8 C 97 % 1008,5 hPa 0,0 l/m 0 min 2 min 0,0 UV-I 0 W/m 2,6 km/h (1 Bft)
10.10.2013 03:30 8,4 C 7,8 C 97 % 1008,3 hPa 0,0 l/m 0 min 2 min 0,0 UV-I 0 W/m 0,0 km/h (0 Bft)
10.10.2013 03:32 8,4 C 7,8 C 97 % 1008,3 hPa 0,0 l/m 0 min 2 min 0,0 UV-I 0 W/m 0,0 km/h (0 Bft)
10.10.2013 03:34 8,4 C 7,8 C 98 % 1008,4 hPa 0,0 l/m 0 min 0 min 0,0 UV-I 0 W/m 0,0 km/h (0 Bft)
10.10.2013 03:36 8,4 C 7,8 C 98 % 1008,4 hPa 0,0 l/m 0 min 0 min 0,0 UV-I 0 W/m 0,0 km/h (0 Bft)
10.10.2013 03:38 8,4 C 7,8 C 97 % 1008,4 hPa 0,0 l/m 0 min 0 min 0,0 UV-I 0 W/m 0,0 km/h (0 Bft)
10.10.2013 03:40 8,4 C 7,8 C 97 % 1008,3 hPa 0,0 l/m 0 min 0 min 0,0 UV-I 0 W/m 2,6 km/h (1 Bft)
10.10.2013 03:42 8,4 C 7,2 C 97 % 1008,3 hPa 0,0 l/m 0 min 0 min 0,0 UV-I 0 W/m 0,0 km/h (0 Bft)
10.10.2013 03:44 8,3 C 7,2 C 97 % 1008,4 hPa 0,0 l/m 0 min 0 min 0,0 UV-I 0 W/m 0,0 km/h (0 Bft)
10.10.2013 03:46 8,3 C 7,2 C 97 % 1008,4 hPa 0,0 l/m 0 min 0 min 0,0 UV-I 0 W/m 0,0 km/h (0 Bft)
10.10.2013 03:48 8,3 C 7,2 C 97 % 1008,4 hPa 0,0 l/m 0 min 0 min 0,0 UV-I 0 W/m 0,0 km/h (0 Bft)
10.10.2013 03:50 8,4 C 7,2 C 97 % 1008,3 hPa 0,0 l/m 0 min 0 min 0,0 UV-I 0 W/m 0,0 km/h (0 Bft)
10.10.2013 03:52 8,4 C 7,8 C 97 % 1008,2 hPa 0,0 l/m 0 min 0 min 0,0 UV-I 0 W/m 0,0 km/h (0 Bft)
10.10.2013 03:54 8,4 C 7,8 C 97 % 1008,2 hPa 0,0 l/m 0 min 0 min 0,0 UV-I 0 W/m 0,0 km/h (0 Bft)
10.10.2013 03:56 8,4 C 7,8 C 97 % 1008,3 hPa 0,0 l/m 0 min 0 min 0,0 UV-I 0 W/m 2,6 km/h (1 Bft)
10.10.2013 03:58 8,3 C 7,8 C 97 % 1008,2 hPa 0,0 l/m 0 min 0 min 0,0 UV-I 0 W/m 0,0 km/h (0 Bft)
10.10.2013 04:00 8,3 C 7,8 C 97 % 1008,1 hPa 0,0 l/m 0 min 0 min 0,0 UV-I 0 W/m 0,0 km/h (0 Bft)
10.10.2013 04:02 8,3 C 7,8 C 97 % 1008,1 hPa 0,0 l/m 0 min 0 min 0,0 UV-I 0 W/m 0,0 km/h (0 Bft)
10.10.2013 04:06 8,3 C 7,2 C 97 % 1008,0 hPa 0,0 l/m 0 min 0 min 0,0 UV-I 0 W/m 0,0 km/h (0 Bft)
10.10.2013 04:08 8,3 C 7,2 C 97 % 1008,1 hPa 0,0 l/m 0 min 0 min 0,0 UV-I 0 W/m 0,0 km/h (0 Bft)
10.10.2013 04:10 8,3 C 7,2 C 97 % 1008,2 hPa 0,0 l/m 0 min 0 min 0,0 UV-I 0 W/m 0,0 km/h (0 Bft)
10.10.2013 04:12 8,3 C 7,2 C 97 % 1008,1 hPa 0,0 l/m 0 min 0 min 0,0 UV-I 0 W/m 0,0 km/h (0 Bft)
10.10.2013 04:14 8,3 C 7,2 C 97 % 1008,1 hPa 0,0 l/m 0 min 0 min 0,0 UV-I 0 W/m 0,0 km/h (0 Bft)
10.10.2013 04:16 8,3 C 7,2 C 97 % 1008,0 hPa 0,0 l/m 0 min 0 min 0,0 UV-I 0 W/m 0,0 km/h (0 Bft)
10.10.2013 04:18 8,3 C 7,2 C 98 % 1008,0 hPa 0,0 l/m 0 min 0 min 0,0 UV-I 0 W/m 0,0 km/h (0 Bft)
10.10.2013 04:20 8,3 C 7,2 C 98 % 1008,0 hPa 0,0 l/m 0 min 0 min 0,0 UV-I 0 W/m 0,0 km/h (0 Bft)
10.10.2013 04:22 8,2 C 7,2 C 98 % 1008,0 hPa 0,0 l/m 0 min 0 min 0,0 UV-I 0 W/m 0,0 km/h (0 Bft)
10.10.2013 04:24 8,2 C 7,2 C 98 % 1008,0 hPa 0,0 l/m 0 min 0 min 0,0 UV-I 0 W/m 0,0 km/h (0 Bft)
10.10.2013 04:26 8,2 C 7,2 C 98 % 1007,9 hPa 0,0 l/m 0 min 0 min 0,0 UV-I 0 W/m 0,0 km/h (0 Bft)
10.10.2013 04:28 8,1 C 7,2 C 98 % 1007,9 hPa 0,0 l/m 0 min 0 min 0,0 UV-I 0 W/m 0,0 km/h (0 Bft)
10.10.2013 04:30 8,1 C 6,7 C 98 % 1007,9 hPa 0,0 l/m 0 min 0 min 0,0 UV-I 0 W/m 0,0 km/h (0 Bft)
10.10.2013 04:32 8,1 C 6,7 C 98 % 1007,9 hPa 0,0 l/m 0 min 0 min 0,0 UV-I 0 W/m 0,0 km/h (0 Bft)
10.10.2013 04:34 8,0 C 6,7 C 98 % 1007,9 hPa 0,0 l/m 0 min 0 min 0,0 UV-I 0 W/m 0,0 km/h (0 Bft)
10.10.2013 04:36 8,0 C 7,2 C 97 % 1007,9 hPa 0,0 l/m 0 min 0 min 0,0 UV-I 0 W/m 2,6 km/h (1 Bft)
10.10.2013 04:38 8,0 C 7,2 C 97 % 1007,9 hPa 0,0 l/m 0 min 0 min 0,0 UV-I 0 W/m 0,0 km/h (0 Bft)
10.10.2013 04:40 8,0 C 7,2 C 98 % 1007,9 hPa 0,0 l/m 0 min 0 min 0,0 UV-I 0 W/m 0,0 km/h (0 Bft)
10.10.2013 04:42 8,0 C 7,2 C 98 % 1007,9 hPa 0,0 l/m 0 min 0 min 0,0 UV-I 0 W/m 0,0 km/h (0 Bft)
10.10.2013 04:44 8,0 C 7,2 C 98 % 1007,9 hPa 0,0 l/m 0 min 0 min 0,0 UV-I 0 W/m 0,0 km/h (0 Bft)
10.10.2013 04:46 8,0 C 7,2 C 98 % 1007,9 hPa 0,0 l/m 0 min 0 min 0,0 UV-I 0 W/m 0,0 km/h (0 Bft)
10.10.2013 04:48 7,9 C 6,7 C 98 % 1007,9 hPa 0,0 l/m 0 min 0 min 0,0 UV-I 0 W/m 0,0 km/h (0 Bft)
10.10.2013 04:50 7,9 C 6,7 C 98 % 1007,8 hPa 0,0 l/m 0 min 0 min 0,0 UV-I 0 W/m 0,0 km/h (0 Bft)
10.10.2013 04:52 7,9 C 6,7 C 98 % 1007,8 hPa 0,0 l/m 0 min 0 min 0,0 UV-I 0 W/m 0,0 km/h (0 Bft)
10.10.2013 04:54 7,9 C 6,7 C 98 % 1007,8 hPa 0,0 l/m 0 min 0 min 0,0 UV-I 0 W/m 0,0 km/h (0 Bft)
10.10.2013 04:56 7,8 C 6,7 C 98 % 1007,8 hPa 0,0 l/m 0 min 0 min 0,0 UV-I 0 W/m 7,7 km/h (2 Bft)
10.10.2013 04:58 7,8 C 6,7 C 98 % 1007,8 hPa 0,0 l/m 0 min 0 min 0,0 UV-I 0 W/m 0,0 km/h (0 Bft)
10.10.2013 05:00 7,8 C 6,7 C 98 % 1007,7 hPa 0,0 l/m 0 min 0 min 0,0 UV-I 0 W/m 0,0 km/h (0 Bft)
10.10.2013 05:02 7,7 C 6,7 C 98 % 1007,9 hPa 0,0 l/m 0 min 0 min 0,0 UV-I 0 W/m 0,0 km/h (0 Bft)
10.10.2013 05:06 7,7 C 6,7 C 98 % 1007,8 hPa 0,0 l/m 0 min 0 min 0,0 UV-I 0 W/m 0,0 km/h (0 Bft)
10.10.2013 05:08 7,7 C 6,7 C 98 % 1007,8 hPa 0,0 l/m 0 min 0 min 0,0 UV-I 0 W/m 0,0 km/h (0 Bft)
10.10.2013 05:10 7,7 C 6,7 C 98 % 1007,8 hPa 0,0 l/m 0 min 0 min 0,0 UV-I 0 W/m 0,0 km/h (0 Bft)
10.10.2013 05:12 7,7 C 6,7 C 98 % 1007,9 hPa 0,0 l/m 0 min 0 min 0,0 UV-I 0 W/m 2,6 km/h (1 Bft)
10.10.2013 05:14 7,7 C 6,7 C 98 % 1007,9 hPa 0,0 l/m 0 min 0 min 0,0 UV-I 0 W/m 0,0 km/h (0 Bft)
10.10.2013 05:16 7,7 C 7,2 C 98 % 1007,9 hPa 0,0 l/m 0 min 0 min 0,0 UV-I 0 W/m 2,6 km/h (1 Bft)
10.10.2013 05:18 7,7 C 7,2 C 98 % 1007,8 hPa 0,0 l/m 0 min 0 min 0,0 UV-I 0 W/m 0,0 km/h (0 Bft)
10.10.2013 05:20 7,7 C 6,7 C 98 % 1007,8 hPa 0,0 l/m 0 min 0 min 0,0 UV-I 0 W/m 0,0 km/h (0 Bft)
10.10.2013 05:22 7,7 C 6,7 C 98 % 1007,8 hPa 0,0 l/m 0 min 0 min 0,0 UV-I 0 W/m 0,0 km/h (0 Bft)
10.10.2013 05:24 7,7 C 6,7 C 98 % 1007,8 hPa 0,0 l/m 0 min 0 min 0,0 UV-I 0 W/m 5,1 km/h (1 Bft)
10.10.2013 05:26 7,6 C 6,7 C 98 % 1007,8 hPa 0,0 l/m 0 min 0 min 0,0 UV-I 0 W/m 2,6 km/h (1 Bft)
10.10.2013 05:28 7,6 C 6,7 C 98 % 1007,8 hPa 0,0 l/m 0 min 0 min 0,0 UV-I 0 W/m 0,0 km/h (0 Bft)
10.10.2013 05:30 7,6 C 6,7 C 98 % 1007,8 hPa 0,0 l/m 0 min 0 min 0,0 UV-I 0 W/m 0,0 km/h (0 Bft)
10.10.2013 05:32 7,5 C 6,1 C 98 % 1007,8 hPa 0,0 l/m 0 min 0 min 0,0 UV-I 0 W/m 0,0 km/h (0 Bft)
10.10.2013 05:34 7,4 C 6,1 C 98 % 1007,7 hPa 0,0 l/m 0 min 0 min 0,0 UV-I 0 W/m 0,0 km/h (0 Bft)
10.10.2013 05:36 7,4 C 6,1 C 98 % 1007,7 hPa 0,0 l/m 0 min 0 min 0,0 UV-I 0 W/m 0,0 km/h (0 Bft)
10.10.2013 05:38 7,4 C 6,1 C 98 % 1007,7 hPa 0,0 l/m 0 min 0 min 0,0 UV-I 0 W/m 0,0 km/h (0 Bft)
10.10.2013 05:40 7,4 C 6,1 C 98 % 1007,6 hPa 0,0 l/m 0 min 0 min 0,0 UV-I 0 W/m 0,0 km/h (0 Bft)
10.10.2013 05:42 7,3 C 6,1 C 98 % 1007,6 hPa 0,0 l/m 0 min 0 min 0,0 UV-I 0 W/m 0,0 km/h (0 Bft)
10.10.2013 05:44 7,3 C 6,1 C 98 % 1007,6 hPa 0,0 l/m 0 min 0 min 0,0 UV-I 0 W/m 0,0 km/h (0 Bft)
10.10.2013 05:46 7,3 C 6,1 C 98 % 1007,7 hPa 0,0 l/m 0 min 0 min 0,0 UV-I 0 W/m 0,0 km/h (0 Bft)
10.10.2013 05:48 7,3 C 6,7 C 98 % 1007,6 hPa 0,0 l/m 0 min 0 min 0,0 UV-I 0 W/m 0,0 km/h (0 Bft)
10.10.2013 05:50 7,3 C 6,7 C 98 % 1007,6 hPa 0,0 l/m 0 min 0 min 0,0 UV-I 0 W/m 0,0 km/h (0 Bft)
10.10.2013 05:52 7,3 C 6,7 C 98 % 1007,6 hPa 0,0 l/m 0 min 0 min 0,0 UV-I 0 W/m 2,6 km/h (1 Bft)
10.10.2013 05:54 7,4 C 6,7 C 98 % 1007,7 hPa 0,0 l/m 0 min 0 min 0,0 UV-I 0 W/m 0,0 km/h (0 Bft)
10.10.2013 05:56 7,4 C 6,7 C 98 % 1007,6 hPa 0,0 l/m 0 min 0 min 0,0 UV-I 0 W/m 0,0 km/h (0 Bft)
10.10.2013 05:58 7,4 C 6,7 C 98 % 1007,5 hPa 0,0 l/m 0 min 0 min 0,0 UV-I 0 W/m 0,0 km/h (0 Bft)
10.10.2013 06:00 7,4 C 6,7 C 98 % 1007,5 hPa 0,0 l/m 0 min 0 min 0,0 UV-I 0 W/m 0,0 km/h (0 Bft)
10.10.2013 06:02 7,4 C 6,7 C 98 % 1007,5 hPa 0,0 l/m 0 min 0 min 0,0 UV-I 0 W/m 0,0 km/h (0 Bft)
10.10.2013 06:06 7,4 C 6,7 C 98 % 1007,5 hPa 0,0 l/m 0 min 0 min 0,0 UV-I 0 W/m 0,0 km/h (0 Bft)
10.10.2013 06:08 7,3 C 6,1 C 98 % 1007,5 hPa 0,0 l/m 0 min 0 min 0,0 UV-I 0 W/m 0,0 km/h (0 Bft)
10.10.2013 06:10 7,3 C 6,1 C 98 % 1007,5 hPa 0,0 l/m 0 min 0 min 0,0 UV-I 0 W/m 0,0 km/h (0 Bft)
10.10.2013 06:12 7,2 C 6,1 C 98 % 1007,5 hPa 0,0 l/m 0 min 0 min 0,0 UV-I 0 W/m 0,0 km/h (0 Bft)
10.10.2013 06:14 7,2 C 6,1 C 98 % 1007,5 hPa 0,0 l/m 0 min 0 min 0,0 UV-I 0 W/m 0,0 km/h (0 Bft)
10.10.2013 06:16 7,2 C 6,1 C 98 % 1007,5 hPa 0,0 l/m 0 min 0 min 0,0 UV-I 0 W/m 0,0 km/h (0 Bft)
10.10.2013 06:18 7,2 C 6,1 C 98 % 1007,5 hPa 0,0 l/m 0 min 0 min 0,0 UV-I 0 W/m 0,0 km/h (0 Bft)
10.10.2013 06:20 7,1 C 6,1 C 98 % 1007,4 hPa 0,0 l/m 0 min 0 min 0,0 UV-I 0 W/m 0,0 km/h (0 Bft)
10.10.2013 06:22 7,1 C 6,1 C 98 % 1007,5 hPa 0,0 l/m 0 min 0 min 0,0 UV-I 0 W/m 2,6 km/h (1 Bft)
10.10.2013 06:24 7,1 C 6,1 C 98 % 1007,4 hPa 0,0 l/m 0 min 0 min 0,0 UV-I 0 W/m 5,1 km/h (1 Bft)
10.10.2013 06:26 7,1 C 6,1 C 98 % 1007,5 hPa 0,0 l/m 0 min 0 min 0,0 UV-I 0 W/m 2,6 km/h (1 Bft)
10.10.2013 06:28 7,0 C 6,1 C 98 % 1007,4 hPa 0,0 l/m 0 min 0 min 0,0 UV-I 0 W/m 2,6 km/h (1 Bft)
10.10.2013 06:30 7,0 C 6,1 C 98 % 1007,4 hPa 0,0 l/m 0 min 0 min 0,0 UV-I 0 W/m 0,0 km/h (0 Bft)
10.10.2013 06:32 7,0 C 6,1 C 98 % 1007,4 hPa 0,0 l/m 0 min 0 min 0,0 UV-I 0 W/m 0,0 km/h (0 Bft)
10.10.2013 06:34 7,0 C 6,1 C 98 % 1007,4 hPa 0,0 l/m 0 min 0 min 0,0 UV-I 0 W/m 2,6 km/h (1 Bft)
10.10.2013 06:36 6,9 C 6,1 C 98 % 1007,4 hPa 0,0 l/m 0 min 0 min 0,0 UV-I 0 W/m 0,0 km/h (0 Bft)
10.10.2013 06:38 6,9 C 6,1 C 98 % 1007,3 hPa 0,0 l/m 0 min 0 min 0,0 UV-I 0 W/m 0,0 km/h (0 Bft)
10.10.2013 06:40 6,9 C 6,1 C 98 % 1007,3 hPa 0,0 l/m 0 min 0 min 0,0 UV-I 0 W/m 0,0 km/h (0 Bft)
10.10.2013 06:42 7,0 C 6,1 C 98 % 1007,3 hPa 0,0 l/m 0 min 0 min 0,0 UV-I 0 W/m 7,7 km/h (2 Bft)
10.10.2013 06:44 7,0 C 6,1 C 98 % 1007,2 hPa 0,0 l/m 0 min 0 min 0,0 UV-I 0 W/m 0,0 km/h (0 Bft)
10.10.2013 06:46 7,0 C 6,1 C 98 % 1007,2 hPa 0,0 l/m 0 min 0 min 0,0 UV-I 0 W/m 0,0 km/h (0 Bft)
10.10.2013 06:48 7,0 C 6,1 C 98 % 1007,2 hPa 0,0 l/m 0 min 0 min 0,0 UV-I 0 W/m 0,0 km/h (0 Bft)
10.10.2013 06:50 7,1 C 6,1 C 98 % 1007,2 hPa 0,0 l/m 0 min 0 min 0,0 UV-I 0 W/m 0,0 km/h (0 Bft)
10.10.2013 06:52 7,0 C 6,1 C 98 % 1007,2 hPa 0,0 l/m 0 min 0 min 0,0 UV-I 0 W/m 0,0 km/h (0 Bft)
10.10.2013 06:54 7,1 C 6,1 C 98 % 1007,2 hPa 0,0 l/m 0 min 0 min 0,0 UV-I 0 W/m 0,0 km/h (0 Bft)
10.10.2013 06:56 7,0 C 6,1 C 98 % 1007,1 hPa 0,0 l/m 0 min 0 min 0,0 UV-I 0 W/m 0,0 km/h (0 Bft)
10.10.2013 06:58 7,0 C 6,1 C 98 % 1007,1 hPa 0,0 l/m 0 min 0 min 0,0 UV-I 0 W/m 0,0 km/h (0 Bft)
10.10.2013 07:00 7,0 C 6,1 C 98 % 1007,1 hPa 0,0 l/m 0 min 0 min 0,0 UV-I 0 W/m 0,0 km/h (0 Bft)
10.10.2013 07:02 6,9 C 6,1 C 98 % 1007,2 hPa 0,0 l/m 0 min 0 min 0,0 UV-I 0 W/m 0,0 km/h (0 Bft)
10.10.2013 07:06 6,9 C 6,1 C 98 % 1007,1 hPa 0,0 l/m 0 min 0 min 0,0 UV-I 0 W/m 0,0 km/h (0 Bft)
10.10.2013 07:08 6,9 C 6,1 C 98 % 1007,2 hPa 0,0 l/m 0 min 0 min 0,0 UV-I 0 W/m 2,6 km/h (1 Bft)
10.10.2013 07:10 6,9 C 5,6 C 98 % 1007,1 hPa 0,0 l/m 0 min 0 min 0,0 UV-I 0 W/m 0,0 km/h (0 Bft)
10.10.2013 07:12 6,8 C 5,6 C 98 % 1007,1 hPa 0,0 l/m 0 min 0 min 0,0 UV-I 0 W/m 0,0 km/h (0 Bft)
10.10.2013 07:14 6,8 C 6,1 C 98 % 1007,1 hPa 0,0 l/m 0 min 0 min 0,0 UV-I 0 W/m 0,0 km/h (0 Bft)
10.10.2013 07:16 6,8 C 6,1 C 98 % 1007,0 hPa 0,0 l/m 0 min 0 min 0,0 UV-I 0 W/m 7,7 km/h (2 Bft)
10.10.2013 07:18 6,8 C 6,1 C 98 % 1007,1 hPa 0,0 l/m 0 min 0 min 0,0 UV-I 0 W/m 0,0 km/h (0 Bft)
10.10.2013 07:20 6,9 C 5,6 C 98 % 1007,1 hPa 0,0 l/m 0 min 0 min 0,0 UV-I 0 W/m 7,7 km/h (2 Bft)
10.10.2013 07:22 6,8 C 5,6 C 98 % 1007,0 hPa 0,0 l/m 0 min 0 min 0,0 UV-I 0 W/m 5,1 km/h (1 Bft)
10.10.2013 07:24 6,8 C 5,6 C 98 % 1007,0 hPa 0,0 l/m 0 min 0 min 0,0 UV-I 0 W/m 0,0 km/h (0 Bft)
10.10.2013 07:26 6,8 C 5,6 C 98 % 1007,0 hPa 0,0 l/m 0 min 0 min 0,0 UV-I 0 W/m 0,0 km/h (0 Bft)
10.10.2013 07:28 6,8 C 5,6 C 98 % 1007,0 hPa 0,0 l/m 0 min 0 min 0,0 UV-I 0 W/m 0,0 km/h (0 Bft)
10.10.2013 07:30 6,8 C 5,6 C 98 % 1007,0 hPa 0,0 l/m 0 min 0 min 0,0 UV-I 0 W/m 0,0 km/h (0 Bft)
10.10.2013 07:32 6,8 C 5,6 C 98 % 1007,0 hPa 0,0 l/m 0 min 0 min 0,0 UV-I 0 W/m 7,7 km/h (2 Bft)
10.10.2013 07:34 6,8 C 5,6 C 98 % 1006,9 hPa 0,0 l/m 0 min 0 min 0,0 UV-I 0 W/m 0,0 km/h (0 Bft)
10.10.2013 07:36 6,8 C 5,6 C 98 % 1006,9 hPa 0,0 l/m 0 min 0 min 0,0 UV-I 0 W/m 0,0 km/h (0 Bft)
10.10.2013 07:38 6,8 C 5,6 C 98 % 1007,0 hPa 0,0 l/m 0 min 0 min 0,0 UV-I 0 W/m 5,1 km/h (1 Bft)
10.10.2013 07:40 6,8 C 5,6 C 98 % 1006,9 hPa 0,0 l/m 0 min 0 min 0,0 UV-I 0 W/m 0,0 km/h (0 Bft)
10.10.2013 07:42 6,8 C 5,6 C 98 % 1007,0 hPa 0,0 l/m 0 min 0 min 0,0 UV-I 0 W/m 12,9 km/h (3 Bft)
10.10.2013 07:44 6,8 C 5,6 C 98 % 1007,0 hPa 0,0 l/m 0 min 0 min 0,0 UV-I 0 W/m 0,0 km/h (0 Bft)
10.10.2013 07:46 6,7 C 5,6 C 98 % 1007,0 hPa 0,0 l/m 0 min 0 min 0,0 UV-I 0 W/m 0,0 km/h (0 Bft)
10.10.2013 07:48 6,7 C 5,6 C 98 % 1007,0 hPa 0,0 l/m 0 min 0 min 0,0 UV-I 0 W/m 0,0 km/h (0 Bft)
10.10.2013 07:50 6,7 C 5,6 C 98 % 1007,0 hPa 0,0 l/m 0 min 0 min 0,0 UV-I 0 W/m 0,0 km/h (0 Bft)
10.10.2013 07:52 6,7 C 5,6 C 98 % 1006,9 hPa 0,0 l/m 0 min 0 min 0,0 UV-I 0 W/m 2,6 km/h (1 Bft)
10.10.2013 07:54 6,7 C 5,6 C 97 % 1006,9 hPa 0,0 l/m 0 min 2 min 0,0 UV-I 0 W/m 5,1 km/h (1 Bft)
10.10.2013 07:56 6,7 C 5,6 C 97 % 1007,0 hPa 0,0 l/m 0 min 2 min 0,0 UV-I 0 W/m 0,0 km/h (0 Bft)
10.10.2013 07:58 6,7 C 5,6 C 97 % 1007,0 hPa 0,0 l/m 0 min 0 min 0,0 UV-I 5 W/m 0,0 km/h (0 Bft)
10.10.2013 08:00 6,7 C 5,6 C 97 % 1007,0 hPa 0,0 l/m 0 min 0 min 0,0 UV-I 5 W/m 0,0 km/h (0 Bft)
10.10.2013 08:02 6,7 C 5,6 C 97 % 1007,0 hPa 0,0 l/m 0 min 0 min 0,0 UV-I 5 W/m 5,1 km/h (1 Bft)
10.10.2013 08:06 6,7 C 6,1 C 97 % 1007,0 hPa 0,0 l/m 0 min 0 min 0,0 UV-I 0 W/m 5,1 km/h (1 Bft)
10.10.2013 08:08 6,7 C 6,1 C 98 % 1007,0 hPa 0,0 l/m 0 min 0 min 0,0 UV-I 5 W/m 0,0 km/h (0 Bft)
10.10.2013 08:10 6,8 C 6,1 C 98 % 1007,0 hPa 0,0 l/m 0 min 0 min 0,0 UV-I 7 W/m 0,0 km/h (0 Bft)
10.10.2013 08:12 6,8 C 6,1 C 98 % 1007,0 hPa 0,0 l/m 0 min 0 min 0,0 UV-I 9 W/m 0,0 km/h (0 Bft)
10.10.2013 08:14 6,8 C 6,1 C 98 % 1006,9 hPa 0,0 l/m 0 min 0 min 0,0 UV-I 11 W/m 0,0 km/h (0 Bft)
10.10.2013 08:16 6,8 C 6,1 C 98 % 1006,9 hPa 0,0 l/m 0 min 0 min 0,0 UV-I 14 W/m 0,0 km/h (0 Bft)
10.10.2013 08:18 6,8 C 6,1 C 98 % 1007,0 hPa 0,0 l/m 0 min 0 min 0,0 UV-I 18 W/m 2,6 km/h (1 Bft)
10.10.2013 08:20 6,8 C 5,6 C 98 % 1007,0 hPa 0,0 l/m 0 min 0 min 0,0 UV-I 14 W/m 10,3 km/h (2 Bft)
10.10.2013 08:22 6,8 C 5,6 C 98 % 1006,9 hPa 0,0 l/m 0 min 0 min 0,0 UV-I 12 W/m 0,0 km/h (0 Bft)
10.10.2013 08:24 6,8 C 5,6 C 98 % 1007,0 hPa 0,0 l/m 0 min 0 min 0,0 UV-I 14 W/m 7,7 km/h (2 Bft)
10.10.2013 08:26 6,7 C 5,6 C 98 % 1007,0 hPa 0,0 l/m 0 min 0 min 0,0 UV-I 19 W/m 0,0 km/h (0 Bft)
10.10.2013 08:28 6,7 C 5,6 C 98 % 1007,0 hPa 0,0 l/m 0 min 0 min 0,0 UV-I 26 W/m 2,6 km/h (1 Bft)
10.10.2013 08:30 6,7 C 5,6 C 98 % 1007,0 hPa 0,0 l/m 0 min 0 min 0,0 UV-I 28 W/m 2,6 km/h (1 Bft)
10.10.2013 08:32 6,7 C 5,6 C 97 % 1007,0 hPa 0,0 l/m 0 min 0 min 0,0 UV-I 28 W/m 5,1 km/h (1 Bft)
10.10.2013 08:34 6,7 C 5,6 C 97 % 1007,0 hPa 0,0 l/m 0 min 0 min 0,0 UV-I 26 W/m 5,1 km/h (1 Bft)
10.10.2013 08:36 6,7 C 5,6 C 97 % 1007,1 hPa 0,0 l/m 0 min 0 min 0,0 UV-I 26 W/m 0,0 km/h (0 Bft)
10.10.2013 08:38 6,6 C 5,6 C 97 % 1007,1 hPa 0,0 l/m 0 min 0 min 0,0 UV-I 25 W/m 0,0 km/h (0 Bft)
10.10.2013 08:40 6,6 C 5,6 C 97 % 1007,1 hPa 0,0 l/m 0 min 0 min 0,0 UV-I 25 W/m 5,1 km/h (1 Bft)
10.10.2013 08:42 6,6 C 5,6 C 97 % 1007,2 hPa 0,0 l/m 0 min 0 min 0,0 UV-I 28 W/m 0,0 km/h (0 Bft)
10.10.2013 08:44 6,6 C 5,6 C 97 % 1007,2 hPa 0,0 l/m 0 min 0 min 0,0 UV-I 32 W/m 0,0 km/h (0 Bft)
10.10.2013 08:46 6,6 C 5,6 C 97 % 1007,2 hPa 0,0 l/m 0 min 0 min 0,0 UV-I 32 W/m 0,0 km/h (0 Bft)
10.10.2013 08:48 6,6 C 5,6 C 97 % 1007,2 hPa 0,0 l/m 0 min 0 min 0,0 UV-I 30 W/m 0,0 km/h (0 Bft)
10.10.2013 08:50 6,5 C 5,6 C 97 % 1007,3 hPa 0,0 l/m 0 min 0 min 0,0 UV-I 28 W/m 0,0 km/h (0 Bft)
10.10.2013 08:52 6,5 C 5,6 C 97 % 1007,3 hPa 0,0 l/m 0 min 0 min 0,0 UV-I 26 W/m 0,0 km/h (0 Bft)
10.10.2013 08:54 6,4 C 5,6 C 97 % 1007,3 hPa 0,0 l/m 0 min 0 min 0,0 UV-I 28 W/m 0,0 km/h (0 Bft)
10.10.2013 08:56 6,4 C 5,6 C 97 % 1007,3 hPa 0,0 l/m 0 min 0 min 0,0 UV-I 35 W/m 0,0 km/h (0 Bft)
10.10.2013 08:58 6,4 C 5,6 C 97 % 1007,3 hPa 0,0 l/m 0 min 0 min 0,0 UV-I 49 W/m 2,6 km/h (1 Bft)
10.10.2013 09:00 6,4 C 5,6 C 97 % 1007,3 hPa 0,0 l/m 0 min 0 min 0,0 UV-I 69 W/m 0,0 km/h (0 Bft)
10.10.2013 09:02 6,5 C 5,6 C 97 % 1007,4 hPa 0,0 l/m 0 min 0 min 0,0 UV-I 90 W/m 10,3 km/h (2 Bft)
10.10.2013 09:06 6,6 C 6,1 C 97 % 1007,3 hPa 0,0 l/m 2 min 0 min 0,0 UV-I 104 W/m 2,6 km/h (1 Bft)
10.10.2013 09:08 6,7 C 6,1 C 97 % 1007,2 hPa 0,0 l/m 0 min 0 min 0,0 UV-I 81 W/m 12,9 km/h (3 Bft)
10.10.2013 09:10 6,7 C 6,1 C 97 % 1007,2 hPa 0,0 l/m 0 min 0 min 0,0 UV-I 72 W/m 2,6 km/h (1 Bft)
10.10.2013 09:12 6,8 C 6,1 C 97 % 1007,2 hPa 0,0 l/m 0 min 0 min 0,0 UV-I 65 W/m 0,0 km/h (0 Bft)
10.10.2013 09:14 6,8 C 6,1 C 97 % 1007,3 hPa 0,0 l/m 0 min 0 min 0,0 UV-I 51 W/m 0,0 km/h (0 Bft)
10.10.2013 09:16 6,8 C 6,1 C 97 % 1007,3 hPa 0,0 l/m 0 min 0 min 0,0 UV-I 49 W/m 0,0 km/h (0 Bft)
10.10.2013 09:18 6,8 C 6,1 C 97 % 1007,3 hPa 0,0 l/m 0 min 0 min 0,0 UV-I 46 W/m 7,7 km/h (2 Bft)
10.10.2013 09:20 6,8 C 6,1 C 97 % 1007,3 hPa 0,0 l/m 0 min 0 min 0,0 UV-I 37 W/m 7,7 km/h (2 Bft)
10.10.2013 09:22 6,8 C 6,1 C 97 % 1007,4 hPa 0,0 l/m 0 min 0 min 0,0 UV-I 35 W/m 0,0 km/h (0 Bft)
10.10.2013 09:24 6,8 C 6,1 C 97 % 1007,5 hPa 0,0 l/m 0 min 0 min 0,0 UV-I 44 W/m 0,0 km/h (0 Bft)
10.10.2013 09:26 6,8 C 6,1 C 97 % 1007,5 hPa 0,0 l/m 0 min 0 min 0,0 UV-I 53 W/m 0,0 km/h (0 Bft)
10.10.2013 09:28 6,9 C 6,1 C 97 % 1007,6 hPa 0,0 l/m 0 min 0 min 0,0 UV-I 51 W/m 2,6 km/h (1 Bft)
10.10.2013 09:30 6,9 C 6,1 C 97 % 1007,6 hPa 0,0 l/m 0 min 0 min 0,0 UV-I 42 W/m 0,0 km/h (0 Bft)
10.10.2013 09:32 6,9 C 6,1 C 97 % 1007,6 hPa 0,0 l/m 0 min 0 min 0,0 UV-I 44 W/m 0,0 km/h (0 Bft)
10.10.2013 09:34 6,9 C 6,1 C 97 % 1007,6 hPa 0,0 l/m 0 min 0 min 0,0 UV-I 47 W/m 2,6 km/h (1 Bft)
10.10.2013 09:36 6,9 C 6,1 C 96 % 1007,6 hPa 0,0 l/m 0 min 0 min 0,0 UV-I 46 W/m 0,0 km/h (0 Bft)
10.10.2013 09:38 6,9 C 6,1 C 96 % 1007,7 hPa 0,0 l/m 0 min 0 min 0,0 UV-I 49 W/m 7,7 km/h (2 Bft)
10.10.2013 09:40 7,0 C 6,1 C 96 % 1007,6 hPa 0,0 l/m 0 min 0 min 0,0 UV-I 51 W/m 0,0 km/h (0 Bft)
10.10.2013 09:42 7,0 C 6,1 C 96 % 1007,7 hPa 0,0 l/m 0 min 0 min 0,0 UV-I 54 W/m 2,6 km/h (1 Bft)
10.10.2013 09:44 7,0 C 6,1 C 96 % 1007,7 hPa 0,0 l/m 0 min 0 min 0,0 UV-I 60 W/m 0,0 km/h (0 Bft)
10.10.2013 09:46 7,1 C 6,1 C 96 % 1007,7 hPa 0,0 l/m 0 min 0 min 0,0 UV-I 69 W/m 0,0 km/h (0 Bft)
10.10.2013 09:48 7,1 C 6,1 C 96 % 1007,7 hPa 0,0 l/m 0 min 0 min 0,0 UV-I 76 W/m 2,6 km/h (1 Bft)
10.10.2013 09:50 7,1 C 6,1 C 96 % 1007,5 hPa 0,0 l/m 0 min 0 min 0,0 UV-I 79 W/m 2,6 km/h (1 Bft)
10.10.2013 09:52 7,1 C 6,7 C 96 % 1007,6 hPa 0,0 l/m 0 min 0 min 0,0 UV-I 81 W/m 0,0 km/h (0 Bft)
10.10.2013 09:54 7,2 C 6,7 C 96 % 1007,6 hPa 0,0 l/m 0 min 0 min 0,0 UV-I 83 W/m 0,0 km/h (0 Bft)
10.10.2013 09:56 7,2 C 6,7 C 96 % 1007,6 hPa 0,0 l/m 0 min 0 min 0,0 UV-I 86 W/m 5,1 km/h (1 Bft)
10.10.2013 09:58 7,2 C 6,7 C 96 % 1007,6 hPa 0,0 l/m 0 min 0 min 0,0 UV-I 97 W/m 7,7 km/h (2 Bft)
10.10.2013 10:00 7,2 C 6,7 C 96 % 1007,6 hPa 0,0 l/m 0 min 0 min 0,0 UV-I 107 W/m 7,7 km/h (2 Bft)
10.10.2013 10:02 7,3 C 6,7 C 96 % 1007,6 hPa 0,0 l/m 0 min 0 min 0,0 UV-I 123 W/m 2,6 km/h (1 Bft)
10.10.2013 10:06 7,4 C 7,2 C 96 % 1007,7 hPa 0,0 l/m 0 min 0 min 0,0 UV-I 135 W/m 5,1 km/h (1 Bft)
10.10.2013 10:08 7,5 C 7,2 C 96 % 1007,6 hPa 0,0 l/m 0 min 0 min 0,0 UV-I 125 W/m 7,7 km/h (2 Bft)
10.10.2013 10:10 7,5 C 7,2 C 95 % 1007,6 hPa 0,0 l/m 0 min 0 min 0,0 UV-I 114 W/m 0,0 km/h (0 Bft)
10.10.2013 10:12 7,6 C 7,2 C 95 % 1007,6 hPa 0,0 l/m 0 min 0 min 0,0 UV-I 107 W/m 2,6 km/h (1 Bft)
10.10.2013 10:14 7,6 C 7,2 C 96 % 1007,7 hPa 0,0 l/m 0 min 0 min 0,0 UV-I 102 W/m 0,0 km/h (0 Bft)
10.10.2013 10:16 7,6 C 6,7 C 95 % 1007,6 hPa 0,0 l/m 0 min 0 min 0,0 UV-I 91 W/m 0,0 km/h (0 Bft)
10.10.2013 10:18 7,6 C 6,7 C 95 % 1007,6 hPa 0,0 l/m 0 min 0 min 0,0 UV-I 79 W/m 5,1 km/h (1 Bft)
10.10.2013 10:20 7,6 C 6,7 C 95 % 1007,7 hPa 0,0 l/m 0 min 0 min 0,0 UV-I 77 W/m 2,6 km/h (1 Bft)
10.10.2013 10:22 7,6 C 6,7 C 95 % 1007,7 hPa 0,0 l/m 0 min 0 min 0,0 UV-I 77 W/m 7,7 km/h (2 Bft)
10.10.2013 10:24 7,6 C 6,7 C 95 % 1007,7 hPa 0,0 l/m 0 min 0 min 0,0 UV-I 76 W/m 2,6 km/h (1 Bft)
10.10.2013 10:26 7,6 C 6,7 C 95 % 1007,7 hPa 0,0 l/m 0 min 0 min 0,0 UV-I 74 W/m 2,6 km/h (1 Bft)
10.10.2013 10:28 7,6 C 6,7 C 95 % 1007,7 hPa 0,0 l/m 0 min 0 min 0,0 UV-I 72 W/m 5,1 km/h (1 Bft)
10.10.2013 10:30 7,6 C 6,7 C 95 % 1007,7 hPa 0,0 l/m 0 min 0 min 0,0 UV-I 76 W/m 0,0 km/h (0 Bft)
10.10.2013 10:32 7,6 C 6,7 C 95 % 1007,7 hPa 0,0 l/m 0 min 0 min 0,0 UV-I 83 W/m 0,0 km/h (0 Bft)
10.10.2013 10:34 7,6 C 6,7 C 95 % 1007,7 hPa 0,0 l/m 0 min 0 min 0,0 UV-I 88 W/m 5,1 km/h (1 Bft)
10.10.2013 10:36 7,6 C 6,7 C 95 % 1007,7 hPa 0,0 l/m 0 min 0 min 0,0 UV-I 98 W/m 2,6 km/h (1 Bft)
10.10.2013 10:38 7,6 C 7,2 C 95 % 1007,6 hPa 0,0 l/m 0 min 0 min 0,0 UV-I 100 W/m 0,0 km/h (0 Bft)
10.10.2013 10:40 7,7 C 7,2 C 94 % 1007,7 hPa 0,0 l/m 0 min 0 min 0,0 UV-I 95 W/m 0,0 km/h (0 Bft)
10.10.2013 10:42 7,7 C 7,2 C 94 % 1007,8 hPa 0,0 l/m 0 min 0 min 0,0 UV-I 88 W/m 2,6 km/h (1 Bft)
10.10.2013 10:44 7,8 C 7,2 C 94 % 1007,7 hPa 0,0 l/m 0 min 0 min 0,0 UV-I 84 W/m 7,7 km/h (2 Bft)
10.10.2013 10:46 7,8 C 7,2 C 95 % 1007,7 hPa 0,0 l/m 0 min 0 min 0,0 UV-I 83 W/m 2,6 km/h (1 Bft)
10.10.2013 10:48 7,7 C 7,2 C 95 % 1007,7 hPa 0,0 l/m 0 min 0 min 0,0 UV-I 88 W/m 10,3 km/h (2 Bft)
10.10.2013 10:50 7,8 C 7,2 C 94 % 1007,7 hPa 0,0 l/m 0 min 0 min 0,0 UV-I 84 W/m 0,0 km/h (0 Bft)
10.10.2013 10:52 7,7 C 7,2 C 94 % 1007,7 hPa 0,0 l/m 0 min 0 min 0,0 UV-I 76 W/m 2,6 km/h (1 Bft)
10.10.2013 10:54 7,7 C 7,2 C 94 % 1007,7 hPa 0,0 l/m 0 min 0 min 0,0 UV-I 69 W/m 10,3 km/h (2 Bft)
10.10.2013 10:56 7,7 C 7,2 C 94 % 1007,7 hPa 0,0 l/m 0 min 0 min 0,0 UV-I 72 W/m 2,6 km/h (1 Bft)
10.10.2013 10:58 7,7 C 7,2 C 94 % 1007,7 hPa 0,0 l/m 0 min 0 min 0,0 UV-I 74 W/m 0,0 km/h (0 Bft)
10.10.2013 11:00 7,7 C 7,2 C 94 % 1007,7 hPa 0,0 l/m 0 min 0 min 0,0 UV-I 72 W/m 0,0 km/h (0 Bft)
10.10.2013 11:02 7,7 C 7,2 C 94 % 1007,8 hPa 0,0 l/m 0 min 0 min 0,0 UV-I 69 W/m 0,0 km/h (0 Bft)
10.10.2013 11:06 7,7 C 7,2 C 94 % 1007,8 hPa 0,0 l/m 0 min 0 min 0,0 UV-I 62 W/m 0,0 km/h (0 Bft)
10.10.2013 11:08 7,7 C 7,2 C 95 % 1007,8 hPa 0,0 l/m 0 min 2 min 0,0 UV-I 60 W/m 2,6 km/h (1 Bft)
10.10.2013 11:10 7,7 C 7,2 C 95 % 1007,8 hPa 0,0 l/m 0 min 2 min 0,0 UV-I 60 W/m 0,0 km/h (0 Bft)
10.10.2013 11:12 7,6 C 7,2 C 95 % 1007,8 hPa 0,0 l/m 0 min 0 min 0,0 UV-I 60 W/m 0,0 km/h (0 Bft)
10.10.2013 11:14 7,6 C 6,7 C 95 % 1007,8 hPa 0,0 l/m 0 min 2 min 0,0 UV-I 63 W/m 0,0 km/h (0 Bft)
10.10.2013 11:16 7,7 C 7,2 C 95 % 1007,9 hPa 0,0 l/m 0 min 2 min 0,0 UV-I 77 W/m 0,0 km/h (0 Bft)
10.10.2013 11:18 7,6 C 7,2 C 95 % 1007,9 hPa 0,0 l/m 0 min 0 min 0,0 UV-I 79 W/m 0,0 km/h (0 Bft)
10.10.2013 11:20 7,7 C 7,2 C 95 % 1007,9 hPa 0,0 l/m 0 min 2 min 0,0 UV-I 79 W/m 0,0 km/h (0 Bft)
10.10.2013 11:22 7,7 C 7,2 C 95 % 1007,9 hPa 0,0 l/m 0 min 0 min 0,0 UV-I 83 W/m 0,0 km/h (0 Bft)
10.10.2013 11:24 7,7 C 7,2 C 95 % 1007,9 hPa 0,0 l/m 0 min 0 min 0,0 UV-I 79 W/m 0,0 km/h (0 Bft)
10.10.2013 11:26 7,7 C 7,2 C 96 % 1007,9 hPa 0,0 l/m 0 min 0 min 0,0 UV-I 76 W/m 0,0 km/h (0 Bft)
10.10.2013 11:28 7,7 C 7,2 C 96 % 1007,9 hPa 0,0 l/m 0 min 0 min 0,0 UV-I 70 W/m 0,0 km/h (0 Bft)
10.10.2013 11:30 7,7 C 7,2 C 96 % 1007,9 hPa 0,0 l/m 0 min 2 min 0,0 UV-I 70 W/m 0,0 km/h (0 Bft)
10.10.2013 11:32 7,7 C 7,2 C 96 % 1008,0 hPa 0,0 l/m 0 min 2 min 0,0 UV-I 76 W/m 0,0 km/h (0 Bft)
10.10.2013 11:34 7,8 C 7,2 C 96 % 1007,9 hPa 0,0 l/m 0 min 2 min 0,0 UV-I 84 W/m 0,0 km/h (0 Bft)
10.10.2013 11:36 7,8 C 7,2 C 96 % 1007,9 hPa 0,0 l/m 0 min 2 min 0,0 UV-I 88 W/m 0,0 km/h (0 Bft)
10.10.2013 11:38 7,8 C 7,2 C 96 % 1008,0 hPa 0,0 l/m 0 min 2 min 0,0 UV-I 95 W/m 0,0 km/h (0 Bft)
10.10.2013 11:40 7,8 C 7,2 C 96 % 1008,0 hPa 0,0 l/m 0 min 2 min 0,0 UV-I 105 W/m 0,0 km/h (0 Bft)
10.10.2013 11:42 7,8 C 7,2 C 96 % 1008,0 hPa 0,0 l/m 0 min 2 min 0,0 UV-I 137 W/m 0,0 km/h (0 Bft)
10.10.2013 11:44 7,7 C 7,2 C 96 % 1008,1 hPa 0,0 l/m 0 min 2 min 0,0 UV-I 158 W/m 0,0 km/h (0 Bft)
10.10.2013 11:46 7,8 C 7,8 C 96 % 1008,0 hPa 0,2 l/m 0 min 0 min 0,0 UV-I 214 W/m 0,0 km/h (0 Bft)
10.10.2013 11:48 7,8 C 7,8 C 96 % 1008,1 hPa 0,0 l/m 0 min 0 min 0,0 UV-I 195 W/m 0,0 km/h (0 Bft)
10.10.2013 11:50 7,9 C 7,8 C 96 % 1008,0 hPa 0,0 l/m 0 min 0 min 0,0 UV-I 183 W/m 0,0 km/h (0 Bft)
10.10.2013 11:52 8,0 C 7,8 C 96 % 1008,0 hPa 0,0 l/m 0 min 0 min 0,0 UV-I 197 W/m 0,0 km/h (0 Bft)
10.10.2013 11:54 8,0 C 7,8 C 96 % 1008,1 hPa 0,0 l/m 0 min 0 min 0,0 UV-I 185 W/m 0,0 km/h (0 Bft)
10.10.2013 11:56 8,1 C 8,3 C 96 % 1008,0 hPa 0,0 l/m 0 min 0 min 0,0 UV-I 195 W/m 0,0 km/h (0 Bft)
10.10.2013 11:58 8,2 C 8,3 C 96 % 1008,1 hPa 0,0 l/m 0 min 0 min 0,0 UV-I 151 W/m 2,6 km/h (1 Bft)
10.10.2013 12:00 8,3 C 8,3 C 97 % 1008,1 hPa 0,0 l/m 0 min 0 min 0,0 UV-I 137 W/m 2,6 km/h (1 Bft)
10.10.2013 12:02 8,3 C 7,8 C 96 % 1008,1 hPa 0,0 l/m 0 min 0 min 0,0 UV-I 132 W/m 10,3 km/h (2 Bft)
10.10.2013 12:06 8,3 C 7,8 C 96 % 1008,1 hPa 0,0 l/m 0 min 0 min 0,0 UV-I 134 W/m 5,1 km/h (1 Bft)
10.10.2013 12:08 8,3 C 7,8 C 96 % 1008,0 hPa 0,0 l/m 0 min 0 min 0,0 UV-I 144 W/m 0,0 km/h (0 Bft)
10.10.2013 12:10 8,4 C 7,8 C 96 % 1007,9 hPa 0,0 l/m 0 min 0 min 0,0 UV-I 156 W/m 0,0 km/h (0 Bft)
10.10.2013 12:12 8,4 C 8,3 C 96 % 1008,1 hPa 0,0 l/m 0 min 0 min 0,0 UV-I 167 W/m 0,0 km/h (0 Bft)
10.10.2013 12:14 8,4 C 8,3 C 96 % 1008,1 hPa 0,0 l/m 0 min 0 min 0,0 UV-I 172 W/m 2,6 km/h (1 Bft)
10.10.2013 12:16 8,4 C 8,3 C 96 % 1008,0 hPa 0,0 l/m 0 min 0 min 0,5 UV-I 174 W/m 7,7 km/h (2 Bft)
10.10.2013 12:18 8,4 C 7,8 C 96 % 1008,0 hPa 0,0 l/m 0 min 0 min 0,5 UV-I 165 W/m 0,0 km/h (0 Bft)
10.10.2013 12:20 8,3 C 7,8 C 96 % 1008,0 hPa 0,0 l/m 0 min 0 min 0,5 UV-I 167 W/m 0,0 km/h (0 Bft)
10.10.2013 12:22 8,4 C 7,8 C 96 % 1008,0 hPa 0,0 l/m 0 min 0 min 0,5 UV-I 209 W/m 2,6 km/h (1 Bft)
10.10.2013 12:24 8,6 C 8,3 C 95 % 1008,0 hPa 0,0 l/m 2 min 0 min 1,1 UV-I 584 W/m 0,0 km/h (0 Bft)
10.10.2013 12:26 8,7 C 8,3 C 95 % 1008,1 hPa 0,0 l/m 2 min 0 min 0,7 UV-I 408 W/m 7,7 km/h (2 Bft)
10.10.2013 12:28 9,0 C 8,3 C 95 % 1008,1 hPa 0,0 l/m 2 min 0 min 0,9 UV-I 592 W/m 5,1 km/h (1 Bft)
10.10.2013 12:30 9,0 C 8,3 C 95 % 1008,1 hPa 0,0 l/m 2 min 0 min 0,8 UV-I 554 W/m 7,7 km/h (2 Bft)
10.10.2013 12:32 9,3 C 8,9 C 94 % 1008,1 hPa 0,0 l/m 2 min 0 min 0,7 UV-I 571 W/m 10,3 km/h (2 Bft)
10.10.2013 12:34 9,5 C 8,9 C 94 % 1008,2 hPa 0,0 l/m 0 min 0 min 0,7 UV-I 276 W/m 0,0 km/h (0 Bft)
10.10.2013 12:36 9,7 C 9,4 C 94 % 1008,2 hPa 0,0 l/m 2 min 0 min 0,7 UV-I 642 W/m 0,0 km/h (0 Bft)
10.10.2013 12:38 10,0 C 10,0 C 93 % 1008,2 hPa 0,0 l/m 2 min 0 min 0,7 UV-I 700 W/m 10,3 km/h (2 Bft)
10.10.2013 12:40 10,2 C 10,0 C 93 % 1008,0 hPa 0,0 l/m 2 min 0 min 0,6 UV-I 694 W/m 0,0 km/h (0 Bft)
10.10.2013 12:42 10,4 C 10,6 C 92 % 1008,2 hPa 0,0 l/m 2 min 0 min 0,5 UV-I 696 W/m 0,0 km/h (0 Bft)
10.10.2013 12:44 10,4 C 10,6 C 91 % 1008,1 hPa 0,0 l/m 2 min 0 min 0,0 UV-I 647 W/m 0,0 km/h (0 Bft)
10.10.2013 12:46 10,7 C 10,6 C 91 % 1008,1 hPa 0,0 l/m 2 min 0 min 0,0 UV-I 548 W/m 5,1 km/h (1 Bft)
10.10.2013 12:48 10,9 C 10,6 C 90 % 1008,1 hPa 0,0 l/m 2 min 0 min 0,0 UV-I 548 W/m 0,0 km/h (0 Bft)
10.10.2013 12:50 10,8 C 10,6 C 89 % 1008,1 hPa 0,0 l/m 0 min 0 min 0,0 UV-I 190 W/m 5,1 km/h (1 Bft)
10.10.2013 12:52 10,6 C 10,0 C 88 % 1008,1 hPa 0,0 l/m 0 min 0 min 0,0 UV-I 130 W/m 0,0 km/h (0 Bft)
10.10.2013 12:54 10,3 C 9,4 C 86 % 1008,2 hPa 0,0 l/m 0 min 0 min 0,0 UV-I 125 W/m 2,6 km/h (1 Bft)
10.10.2013 12:56 10,0 C 8,9 C 85 % 1008,1 hPa 0,0 l/m 0 min 0 min 0,0 UV-I 155 W/m 0,0 km/h (0 Bft)
10.10.2013 12:58 9,8 C 8,9 C 87 % 1008,0 hPa 0,0 l/m 0 min 0 min 0,5 UV-I 200 W/m 0,0 km/h (0 Bft)
10.10.2013 13:00 9,8 C 9,4 C 88 % 1008,0 hPa 0,0 l/m 0 min 0 min 0,5 UV-I 225 W/m 2,6 km/h (1 Bft)
10.10.2013 13:02 9,7 C 9,4 C 87 % 1008,1 hPa 0,0 l/m 0 min 0 min 0,0 UV-I 223 W/m 5,1 km/h (1 Bft)
10.10.2013 13:06 9,5 C 8,9 C 86 % 1008,1 hPa 0,0 l/m 0 min 0 min 0,0 UV-I 190 W/m 5,1 km/h (1 Bft)
10.10.2013 13:08 9,4 C 8,9 C 85 % 1008,2 hPa 0,0 l/m 0 min 0 min 0,0 UV-I 171 W/m 0,0 km/h (0 Bft)
10.10.2013 13:10 9,4 C 8,9 C 85 % 1008,2 hPa 0,0 l/m 0 min 0 min 0,0 UV-I 148 W/m 0,0 km/h (0 Bft)
10.10.2013 13:12 9,5 C 8,9 C 86 % 1008,2 hPa 0,0 l/m 0 min 0 min 0,0 UV-I 121 W/m 0,0 km/h (0 Bft)
10.10.2013 13:14 9,5 C 8,9 C 87 % 1008,2 hPa 0,0 l/m 0 min 0 min 0,0 UV-I 81 W/m 0,0 km/h (0 Bft)
10.10.2013 13:16 9,6 C 8,9 C 88 % 1008,2 hPa 0,0 l/m 0 min 0 min 0,0 UV-I 60 W/m 0,0 km/h (0 Bft)
10.10.2013 13:18 9,6 C 8,9 C 88 % 1008,2 hPa 0,0 l/m 0 min 0 min 0,0 UV-I 53 W/m 2,6 km/h (1 Bft)
10.10.2013 13:20 9,4 C 8,3 C 88 % 1008,3 hPa 0,0 l/m 0 min 2 min 0,0 UV-I 53 W/m 15,4 km/h (3 Bft)
10.10.2013 13:22 9,3 C 8,3 C 88 % 1008,3 hPa 0,0 l/m 0 min 0 min 0,0 UV-I 56 W/m 2,6 km/h (1 Bft)
10.10.2013 13:24 9,2 C 8,3 C 88 % 1008,3 hPa 0,0 l/m 0 min 0 min 0,0 UV-I 60 W/m 2,6 km/h (1 Bft)
10.10.2013 13:26 9,1 C 8,3 C 88 % 1008,3 hPa 0,0 l/m 0 min 0 min 0,0 UV-I 77 W/m 0,0 km/h (0 Bft)
10.10.2013 13:28 9,0 C 8,3 C 88 % 1008,2 hPa 0,0 l/m 0 min 0 min 0,0 UV-I 97 W/m 0,0 km/h (0 Bft)
10.10.2013 13:30 8,9 C 8,3 C 88 % 1008,2 hPa 0,0 l/m 0 min 0 min 0,0 UV-I 116 W/m 0,0 km/h (0 Bft)
10.10.2013 13:32 8,9 C 8,3 C 88 % 1008,3 hPa 0,0 l/m 0 min 0 min 0,0 UV-I 135 W/m 0,0 km/h (0 Bft)
10.10.2013 13:34 9,0 C 8,3 C 88 % 1008,3 hPa 0,0 l/m 0 min 0 min 0,0 UV-I 144 W/m 0,0 km/h (0 Bft)
10.10.2013 13:36 9,1 C 8,9 C 88 % 1008,3 hPa 0,0 l/m 0 min 0 min 0,0 UV-I 160 W/m 0,0 km/h (0 Bft)
10.10.2013 13:38 9,1 C 8,9 C 88 % 1008,3 hPa 0,0 l/m 0 min 0 min 0,0 UV-I 169 W/m 2,6 km/h (1 Bft)
10.10.2013 13:40 9,3 C 8,9 C 89 % 1008,3 hPa 0,0 l/m 0 min 0 min 0,0 UV-I 172 W/m 0,0 km/h (0 Bft)
10.10.2013 13:42 9,4 C 9,4 C 89 % 1008,3 hPa 0,0 l/m 0 min 0 min 0,0 UV-I 204 W/m 0,0 km/h (0 Bft)
10.10.2013 13:44 9,3 C 8,9 C 88 % 1008,3 hPa 0,0 l/m 0 min 0 min 0,0 UV-I 197 W/m 0,0 km/h (0 Bft)
10.10.2013 13:46 9,4 C 9,4 C 87 % 1008,3 hPa 0,0 l/m 0 min 0 min 0,0 UV-I 188 W/m 0,0 km/h (0 Bft)
10.10.2013 13:48 9,6 C 9,4 C 88 % 1008,3 hPa 0,0 l/m 0 min 0 min 0,5 UV-I 178 W/m 0,0 km/h (0 Bft)
10.10.2013 13:50 9,6 C 9,4 C 87 % 1008,3 hPa 0,0 l/m 0 min 0 min 0,6 UV-I 192 W/m 0,0 km/h (0 Bft)
10.10.2013 13:52 9,6 C 9,4 C 87 % 1008,3 hPa 0,0 l/m 2 min 0 min 1,3 UV-I 615 W/m 0,0 km/h (0 Bft)
10.10.2013 13:54 10,0 C 9,4 C 88 % 1008,2 hPa 0,0 l/m 2 min 0 min 1,3 UV-I 580 W/m 0,0 km/h (0 Bft)
10.10.2013 13:56 10,2 C 10,0 C 87 % 1008,2 hPa 0,0 l/m 2 min 0 min 1,3 UV-I 540 W/m 10,3 km/h (2 Bft)
10.10.2013 13:58 10,6 C 10,0 C 87 % 1008,3 hPa 0,0 l/m 2 min 0 min 1,3 UV-I 566 W/m 7,7 km/h (2 Bft)
10.10.2013 14:00 10,6 C 10,0 C 84 % 1008,3 hPa 0,0 l/m 2 min 0 min 1,3 UV-I 545 W/m 7,7 km/h (2 Bft)
10.10.2013 14:02 10,8 C 10,0 C 85 % 1008,2 hPa 0,0 l/m 2 min 0 min 1,2 UV-I 536 W/m 0,0 km/h (0 Bft)
10.10.2013 14:06 10,8 C 10,0 C 84 % 1008,2 hPa 0,0 l/m 2 min 0 min 1,3 UV-I 626 W/m 2,6 km/h (1 Bft)
10.10.2013 14:08 10,8 C 10,0 C 84 % 1008,2 hPa 0,0 l/m 2 min 0 min 1,2 UV-I 652 W/m 7,7 km/h (2 Bft)
10.10.2013 14:10 11,1 C 10,6 C 85 % 1008,2 hPa 0,0 l/m 2 min 0 min 1,1 UV-I 526 W/m 0,0 km/h (0 Bft)
10.10.2013 14:12 11,3 C 11,1 C 85 % 1008,2 hPa 0,0 l/m 2 min 0 min 1,1 UV-I 598 W/m 5,1 km/h (1 Bft)
10.10.2013 14:14 11,3 C 10,6 C 83 % 1008,2 hPa 0,0 l/m 2 min 0 min 0,8 UV-I 285 W/m 12,9 km/h (3 Bft)
10.10.2013 14:16 11,3 C 11,1 C 84 % 1008,2 hPa 0,0 l/m 2 min 0 min 0,9 UV-I 578 W/m 7,7 km/h (2 Bft)
10.10.2013 14:18 11,1 C 10,6 C 83 % 1008,1 hPa 0,0 l/m 0 min 0 min 0,5 UV-I 141 W/m 2,6 km/h (1 Bft)
10.10.2013 14:20 10,9 C 10,0 C 82 % 1008,1 hPa 0,0 l/m 0 min 0 min 0,5 UV-I 144 W/m 0,0 km/h (0 Bft)
10.10.2013 14:22 10,8 C 10,0 C 80 % 1008,1 hPa 0,0 l/m 0 min 0 min 0,5 UV-I 142 W/m 0,0 km/h (0 Bft)
10.10.2013 14:24 10,7 C 10,0 C 82 % 1008,1 hPa 0,0 l/m 0 min 0 min 0,5 UV-I 179 W/m 0,0 km/h (0 Bft)
10.10.2013 14:26 10,7 C 10,0 C 83 % 1008,2 hPa 0,0 l/m 0 min 0 min 1,2 UV-I 202 W/m 0,0 km/h (0 Bft)
10.10.2013 14:28 10,8 C 10,0 C 84 % 1008,1 hPa 0,0 l/m 2 min 0 min 1,1 UV-I 589 W/m 0,0 km/h (0 Bft)
10.10.2013 14:30 10,9 C 10,0 C 83 % 1008,1 hPa 0,0 l/m 2 min 0 min 0,7 UV-I 545 W/m 0,0 km/h (0 Bft)
10.10.2013 14:32 11,1 C 10,6 C 83 % 1008,2 hPa 0,0 l/m 2 min 0 min 0,5 UV-I 582 W/m 0,0 km/h (0 Bft)
10.10.2013 14:34 11,1 C 10,0 C 80 % 1008,2 hPa 0,0 l/m 0 min 0 min 0,0 UV-I 135 W/m 2,6 km/h (1 Bft)
10.10.2013 14:36 11,0 C 10,0 C 80 % 1008,2 hPa 0,0 l/m 0 min 0 min 0,0 UV-I 144 W/m 2,6 km/h (1 Bft)
10.10.2013 14:38 10,8 C 10,0 C 80 % 1008,1 hPa 0,0 l/m 0 min 0 min 0,0 UV-I 174 W/m 10,3 km/h (2 Bft)
10.10.2013 14:40 10,7 C 9,4 C 81 % 1008,1 hPa 0,0 l/m 0 min 0 min 0,0 UV-I 98 W/m 12,9 km/h (3 Bft)
10.10.2013 14:42 10,5 C 9,4 C 81 % 1008,1 hPa 0,0 l/m 0 min 0 min 0,0 UV-I 95 W/m 5,1 km/h (1 Bft)
10.10.2013 14:44 10,4 C 9,4 C 82 % 1008,1 hPa 0,0 l/m 0 min 0 min 0,0 UV-I 102 W/m 2,6 km/h (1 Bft)
10.10.2013 14:46 10,3 C 9,4 C 82 % 1008,1 hPa 0,0 l/m 0 min 0 min 0,5 UV-I 123 W/m 2,6 km/h (1 Bft)
10.10.2013 14:48 10,2 C 9,4 C 81 % 1008,1 hPa 0,0 l/m 0 min 0 min 0,5 UV-I 121 W/m 0,0 km/h (0 Bft)
10.10.2013 14:50 10,1 C 9,4 C 82 % 1008,1 hPa 0,0 l/m 0 min 0 min 0,5 UV-I 120 W/m 0,0 km/h (0 Bft)
10.10.2013 14:52 10,1 C 9,4 C 81 % 1008,0 hPa 0,0 l/m 2 min 0 min 1,0 UV-I 526 W/m 0,0 km/h (0 Bft)
10.10.2013 14:54 10,1 C 9,4 C 79 % 1008,1 hPa 0,0 l/m 0 min 0 min 0,0 UV-I 98 W/m 0,0 km/h (0 Bft)
10.10.2013 14:56 10,1 C 8,9 C 77 % 1008,0 hPa 0,0 l/m 0 min 0 min 0,0 UV-I 111 W/m 0,0 km/h (0 Bft)
10.10.2013 14:58 10,1 C 8,9 C 79 % 1008,0 hPa 0,0 l/m 0 min 0 min 0,6 UV-I 125 W/m 0,0 km/h (0 Bft)
10.10.2013 15:00 10,1 C 8,9 C 80 % 1008,0 hPa 0,0 l/m 2 min 0 min 0,8 UV-I 397 W/m 0,0 km/h (0 Bft)
10.10.2013 15:02 10,3 C 9,4 C 81 % 1008,0 hPa 0,0 l/m 2 min 0 min 0,9 UV-I 452 W/m 0,0 km/h (0 Bft)
10.10.2013 15:06 10,7 C 9,4 C 79 % 1008,0 hPa 0,0 l/m 2 min 0 min 0,9 UV-I 468 W/m 0,0 km/h (0 Bft)
10.10.2013 15:08 10,8 C 10,0 C 79 % 1008,0 hPa 0,0 l/m 2 min 0 min 0,9 UV-I 462 W/m 5,1 km/h (1 Bft)
10.10.2013 15:10 10,9 C 10,0 C 79 % 1008,0 hPa 0,0 l/m 2 min 0 min 0,9 UV-I 455 W/m 2,6 km/h (1 Bft)
10.10.2013 15:12 11,2 C 10,0 C 79 % 1007,9 hPa 0,0 l/m 2 min 0 min 0,9 UV-I 454 W/m 7,7 km/h (2 Bft)
10.10.2013 15:14 11,4 C 10,0 C 79 % 1007,9 hPa 0,0 l/m 2 min 0 min 0,8 UV-I 455 W/m 5,1 km/h (1 Bft)
10.10.2013 15:16 11,3 C 10,0 C 76 % 1007,9 hPa 0,0 l/m 2 min 0 min 0,8 UV-I 462 W/m 10,3 km/h (2 Bft)
10.10.2013 15:18 11,2 C 10,0 C 76 % 1008,0 hPa 0,0 l/m 0 min 0 min 0,0 UV-I 70 W/m 2,6 km/h (1 Bft)
10.10.2013 15:20 11,2 C 10,0 C 77 % 1008,0 hPa 0,0 l/m 0 min 0 min 0,0 UV-I 77 W/m 0,0 km/h (0 Bft)
10.10.2013 15:22 11,0 C 10,0 C 78 % 1008,0 hPa 0,0 l/m 0 min 0 min 0,6 UV-I 88 W/m 0,0 km/h (0 Bft)
10.10.2013 15:24 10,9 C 10,0 C 77 % 1008,0 hPa 0,0 l/m 0 min 0 min 0,0 UV-I 93 W/m 0,0 km/h (0 Bft)
10.10.2013 15:26 10,9 C 10,0 C 77 % 1008,0 hPa 0,0 l/m 0 min 0 min 0,0 UV-I 107 W/m 0,0 km/h (0 Bft)
10.10.2013 15:28 10,8 C 10,0 C 76 % 1008,0 hPa 0,0 l/m 0 min 0 min 0,0 UV-I 176 W/m 0,0 km/h (0 Bft)
10.10.2013 15:30 10,8 C 10,0 C 76 % 1007,9 hPa 0,0 l/m 0 min 0 min 0,0 UV-I 179 W/m 2,6 km/h (1 Bft)
10.10.2013 15:32 10,9 C 10,0 C 77 % 1008,0 hPa 0,0 l/m 0 min 0 min 0,0 UV-I 202 W/m 0,0 km/h (0 Bft)
10.10.2013 15:34 11,0 C 10,0 C 77 % 1008,0 hPa 0,0 l/m 0 min 0 min 0,0 UV-I 197 W/m 0,0 km/h (0 Bft)
10.10.2013 15:36 11,1 C 10,0 C 77 % 1008,0 hPa 0,0 l/m 0 min 0 min 0,0 UV-I 185 W/m 0,0 km/h (0 Bft)
10.10.2013 15:38 11,1 C 10,0 C 77 % 1008,0 hPa 0,0 l/m 0 min 0 min 0,0 UV-I 144 W/m 7,7 km/h (2 Bft)
10.10.2013 15:40 11,1 C 10,0 C 76 % 1007,9 hPa 0,0 l/m 0 min 0 min 0,0 UV-I 146 W/m 2,6 km/h (1 Bft)
10.10.2013 15:42 11,1 C 10,0 C 76 % 1008,0 hPa 0,0 l/m 0 min 0 min 0,0 UV-I 142 W/m 0,0 km/h (0 Bft)
10.10.2013 15:44 11,1 C 10,0 C 76 % 1008,0 hPa 0,0 l/m 0 min 0 min 0,0 UV-I 121 W/m 0,0 km/h (0 Bft)
10.10.2013 15:46 11,1 C 10,0 C 75 % 1008,0 hPa 0,0 l/m 0 min 0 min 0,0 UV-I 118 W/m 0,0 km/h (0 Bft)
10.10.2013 15:48 11,1 C 10,0 C 74 % 1008,0 hPa 0,0 l/m 0 min 0 min 0,0 UV-I 118 W/m 0,0 km/h (0 Bft)
10.10.2013 15:50 11,0 C 10,0 C 76 % 1008,0 hPa 0,0 l/m 0 min 0 min 0,0 UV-I 156 W/m 0,0 km/h (0 Bft)
10.10.2013 15:52 10,9 C 10,0 C 75 % 1008,0 hPa 0,0 l/m 0 min 0 min 0,0 UV-I 144 W/m 0,0 km/h (0 Bft)
10.10.2013 15:54 10,9 C 10,0 C 75 % 1008,0 hPa 0,0 l/m 0 min 0 min 0,0 UV-I 155 W/m 0,0 km/h (0 Bft)
10.10.2013 15:56 10,9 C 10,0 C 74 % 1008,0 hPa 0,0 l/m 0 min 0 min 0,0 UV-I 202 W/m 2,6 km/h (1 Bft)
10.10.2013 15:58 10,9 C 10,0 C 74 % 1008,0 hPa 0,0 l/m 0 min 0 min 0,0 UV-I 181 W/m 0,0 km/h (0 Bft)
10.10.2013 16:00 10,9 C 10,0 C 74 % 1008,0 hPa 0,0 l/m 0 min 0 min 0,0 UV-I 193 W/m 7,7 km/h (2 Bft)
10.10.2013 16:02 11,0 C 10,0 C 74 % 1008,1 hPa 0,0 l/m 2 min 0 min 0,0 UV-I 232 W/m 5,1 km/h (1 Bft)
10.10.2013 16:06 11,1 C 10,0 C 73 % 1008,1 hPa 0,0 l/m 2 min 0 min 0,0 UV-I 281 W/m 10,3 km/h (2 Bft)
10.10.2013 16:08 11,2 C 10,0 C 74 % 1008,1 hPa 0,0 l/m 0 min 0 min 0,0 UV-I 179 W/m 5,1 km/h (1 Bft)
10.10.2013 16:10 11,2 C 10,6 C 74 % 1008,0 hPa 0,0 l/m 2 min 0 min 0,0 UV-I 329 W/m 0,0 km/h (0 Bft)
10.10.2013 16:12 11,3 C 10,6 C 73 % 1008,0 hPa 0,0 l/m 2 min 0 min 0,0 UV-I 332 W/m 7,7 km/h (2 Bft)
10.10.2013 16:14 11,5 C 10,6 C 75 % 1008,1 hPa 0,0 l/m 2 min 0 min 0,0 UV-I 339 W/m 0,0 km/h (0 Bft)
10.10.2013 16:16 11,6 C 10,6 C 75 % 1008,1 hPa 0,0 l/m 0 min 0 min 0,0 UV-I 144 W/m 7,7 km/h (2 Bft)
10.10.2013 16:18 11,7 C 10,6 C 74 % 1008,1 hPa 0,0 l/m 2 min 0 min 0,0 UV-I 360 W/m 0,0 km/h (0 Bft)
10.10.2013 16:20 11,9 C 10,6 C 73 % 1008,1 hPa 0,0 l/m 2 min 0 min 0,0 UV-I 330 W/m 0,0 km/h (0 Bft)
10.10.2013 16:22 11,9 C 10,6 C 75 % 1008,1 hPa 0,0 l/m 2 min 0 min 0,0 UV-I 264 W/m 10,3 km/h (2 Bft)
10.10.2013 16:24 11,8 C 10,6 C 72 % 1008,1 hPa 0,0 l/m 2 min 0 min 0,0 UV-I 218 W/m 7,7 km/h (2 Bft)
10.10.2013 16:26 11,7 C 10,6 C 72 % 1008,2 hPa 0,0 l/m 0 min 0 min 0,0 UV-I 171 W/m 0,0 km/h (0 Bft)
10.10.2013 16:28 11,6 C 10,6 C 72 % 1008,2 hPa 0,0 l/m 2 min 0 min 0,0 UV-I 207 W/m 0,0 km/h (0 Bft)
10.10.2013 16:30 11,6 C 10,6 C 72 % 1008,1 hPa 0,0 l/m 2 min 0 min 0,0 UV-I 258 W/m 2,6 km/h (1 Bft)
10.10.2013 16:32 11,6 C 10,6 C 72 % 1008,1 hPa 0,0 l/m 2 min 0 min 0,0 UV-I 257 W/m 0,0 km/h (0 Bft)
10.10.2013 16:34 11,6 C 10,6 C 72 % 1008,1 hPa 0,0 l/m 2 min 0 min 0,0 UV-I 243 W/m 12,9 km/h (3 Bft)
10.10.2013 16:36 11,6 C 10,6 C 71 % 1008,1 hPa 0,0 l/m 2 min 0 min 0,0 UV-I 260 W/m 5,1 km/h (1 Bft)
10.10.2013 16:38 11,7 C 10,6 C 72 % 1008,0 hPa 0,0 l/m 2 min 0 min 0,0 UV-I 283 W/m 0,0 km/h (0 Bft)
10.10.2013 16:40 11,7 C 10,6 C 72 % 1008,0 hPa 0,0 l/m 2 min 0 min 0,0 UV-I 246 W/m 0,0 km/h (0 Bft)
10.10.2013 16:42 11,8 C 10,6 C 72 % 1008,1 hPa 0,0 l/m 2 min 0 min 0,0 UV-I 274 W/m 7,7 km/h (2 Bft)
10.10.2013 16:44 11,8 C 10,6 C 73 % 1008,1 hPa 0,0 l/m 2 min 0 min 0,0 UV-I 304 W/m 0,0 km/h (0 Bft)
10.10.2013 16:46 11,8 C 10,6 C 72 % 1008,1 hPa 0,0 l/m 2 min 0 min 0,0 UV-I 278 W/m 0,0 km/h (0 Bft)
10.10.2013 16:48 11,9 C 10,6 C 74 % 1008,0 hPa 0,0 l/m 2 min 0 min 0,0 UV-I 281 W/m 0,0 km/h (0 Bft)
10.10.2013 16:50 12,1 C 10,6 C 74 % 1008,1 hPa 0,0 l/m 2 min 0 min 0,0 UV-I 276 W/m 5,1 km/h (1 Bft)
10.10.2013 16:52 12,1 C 10,6 C 72 % 1008,1 hPa 0,0 l/m 2 min 0 min 0,0 UV-I 269 W/m 0,0 km/h (0 Bft)
10.10.2013 16:54 12,2 C 10,6 C 72 % 1008,1 hPa 0,0 l/m 2 min 0 min 0,0 UV-I 269 W/m 0,0 km/h (0 Bft)
10.10.2013 16:56 12,2 C 10,6 C 71 % 1008,0 hPa 0,0 l/m 2 min 0 min 0,0 UV-I 216 W/m 15,4 km/h (3 Bft)
10.10.2013 16:58 12,1 C 10,6 C 70 % 1008,0 hPa 0,0 l/m 2 min 0 min 0,0 UV-I 171 W/m 0,0 km/h (0 Bft)
10.10.2013 17:00 12,0 C 10,0 C 72 % 1007,9 hPa 0,0 l/m 2 min 0 min 0,0 UV-I 149 W/m 0,0 km/h (0 Bft)
10.10.2013 17:02 11,9 C 10,0 C 72 % 1008,0 hPa 0,0 l/m 2 min 0 min 0,0 UV-I 218 W/m 0,0 km/h (0 Bft)
10.10.2013 17:06 11,7 C 10,0 C 71 % 1007,9 hPa 0,0 l/m 2 min 0 min 0,0 UV-I 223 W/m 0,0 km/h (0 Bft)
10.10.2013 17:08 11,7 C 10,0 C 72 % 1008,0 hPa 0,0 l/m 0 min 0 min 0,0 UV-I 56 W/m 0,0 km/h (0 Bft)
10.10.2013 17:10 11,6 C 10,0 C 71 % 1007,9 hPa 0,0 l/m 0 min 0 min 0,0 UV-I 62 W/m 0,0 km/h (0 Bft)
10.10.2013 17:12 11,5 C 10,0 C 73 % 1008,0 hPa 0,0 l/m 2 min 0 min 0,0 UV-I 207 W/m 0,0 km/h (0 Bft)
10.10.2013 17:14 11,5 C 10,0 C 73 % 1008,0 hPa 0,0 l/m 0 min 0 min 0,0 UV-I 123 W/m 0,0 km/h (0 Bft)
10.10.2013 17:16 11,4 C 10,0 C 73 % 1008,0 hPa 0,0 l/m 0 min 0 min 0,0 UV-I 58 W/m 0,0 km/h (0 Bft)
10.10.2013 17:18 11,4 C 9,4 C 75 % 1007,9 hPa 0,0 l/m 0 min 0 min 0,0 UV-I 60 W/m 0,0 km/h (0 Bft)
10.10.2013 17:20 11,3 C 9,4 C 75 % 1007,9 hPa 0,0 l/m 0 min 0 min 0,0 UV-I 111 W/m 0,0 km/h (0 Bft)
10.10.2013 17:22 11,3 C 9,4 C 74 % 1007,9 hPa 0,0 l/m 2 min 0 min 0,0 UV-I 163 W/m 0,0 km/h (0 Bft)
10.10.2013 17:24 11,3 C 9,4 C 75 % 1007,9 hPa 0,0 l/m 2 min 0 min 0,0 UV-I 169 W/m 0,0 km/h (0 Bft)
10.10.2013 17:26 11,2 C 9,4 C 75 % 1007,9 hPa 0,0 l/m 0 min 0 min 0,0 UV-I 54 W/m 0,0 km/h (0 Bft)
10.10.2013 17:28 11,2 C 9,4 C 76 % 1007,9 hPa 0,0 l/m 2 min 0 min 0,0 UV-I 155 W/m 0,0 km/h (0 Bft)
10.10.2013 17:30 11,2 C 9,4 C 76 % 1007,9 hPa 0,0 l/m 2 min 0 min 0,0 UV-I 148 W/m 0,0 km/h (0 Bft)
10.10.2013 17:32 11,2 C 9,4 C 77 % 1007,9 hPa 0,0 l/m 2 min 0 min 0,0 UV-I 160 W/m 0,0 km/h (0 Bft)
10.10.2013 17:34 11,2 C 9,4 C 77 % 1007,9 hPa 0,0 l/m 2 min 0 min 0,0 UV-I 118 W/m 0,0 km/h (0 Bft)
10.10.2013 17:36 11,2 C 9,4 C 78 % 1007,9 hPa 0,0 l/m 0 min 0 min 0,0 UV-I 100 W/m 0,0 km/h (0 Bft)
10.10.2013 17:38 11,1 C 9,4 C 79 % 1007,9 hPa 0,0 l/m 2 min 0 min 0,0 UV-I 102 W/m 0,0 km/h (0 Bft)
10.10.2013 17:40 11,1 C 9,4 C 78 % 1008,0 hPa 0,0 l/m 0 min 0 min 0,0 UV-I 42 W/m 0,0 km/h (0 Bft)
10.10.2013 17:42 11,0 C 9,4 C 78 % 1008,0 hPa 0,0 l/m 0 min 0 min 0,0 UV-I 39 W/m 0,0 km/h (0 Bft)
10.10.2013 17:44 11,0 C 9,4 C 78 % 1008,1 hPa 0,0 l/m 0 min 0 min 0,0 UV-I 58 W/m 0,0 km/h (0 Bft)
10.10.2013 17:46 11,0 C 9,4 C 78 % 1008,1 hPa 0,0 l/m 0 min 0 min 0,0 UV-I 63 W/m 0,0 km/h (0 Bft)
10.10.2013 17:48 11,0 C 9,4 C 78 % 1008,1 hPa 0,0 l/m 2 min 0 min 0,0 UV-I 109 W/m 0,0 km/h (0 Bft)
10.10.2013 17:50 11,0 C 9,4 C 78 % 1008,0 hPa 0,0 l/m 0 min 0 min 0,0 UV-I 77 W/m 0,0 km/h (0 Bft)
10.10.2013 17:52 11,0 C 9,4 C 79 % 1008,1 hPa 0,0 l/m 0 min 0 min 0,0 UV-I 72 W/m 0,0 km/h (0 Bft)
10.10.2013 17:54 11,0 C 9,4 C 79 % 1008,1 hPa 0,0 l/m 0 min 0 min 0,0 UV-I 70 W/m 0,0 km/h (0 Bft)
10.10.2013 17:56 10,9 C 10,0 C 79 % 1008,0 hPa 0,0 l/m 0 min 0 min 0,0 UV-I 65 W/m 0,0 km/h (0 Bft)
10.10.2013 17:58 10,9 C 10,0 C 79 % 1008,1 hPa 0,0 l/m 0 min 0 min 0,0 UV-I 58 W/m 0,0 km/h (0 Bft)
10.10.2013 18:00 10,9 C 10,0 C 79 % 1008,0 hPa 0,0 l/m 0 min 0 min 0,0 UV-I 49 W/m 0,0 km/h (0 Bft)
10.10.2013 18:02 10,9 C 9,4 C 80 % 1008,0 hPa 0,0 l/m 0 min 0 min 0,0 UV-I 44 W/m 0,0 km/h (0 Bft)
10.10.2013 18:06 10,8 C 9,4 C 80 % 1008,0 hPa 0,0 l/m 0 min 0 min 0,0 UV-I 33 W/m 0,0 km/h (0 Bft)
10.10.2013 18:08 10,8 C 9,4 C 80 % 1008,0 hPa 0,0 l/m 0 min 0 min 0,0 UV-I 32 W/m 0,0 km/h (0 Bft)
10.10.2013 18:10 10,7 C 9,4 C 81 % 1008,1 hPa 0,0 l/m 0 min 0 min 0,0 UV-I 30 W/m 0,0 km/h (0 Bft)
10.10.2013 18:12 10,7 C 9,4 C 80 % 1008,1 hPa 0,0 l/m 0 min 0 min 0,0 UV-I 28 W/m 0,0 km/h (0 Bft)
10.10.2013 18:14 10,6 C 9,4 C 80 % 1008,1 hPa 0,0 l/m 0 min 0 min 0,0 UV-I 26 W/m 0,0 km/h (0 Bft)
10.10.2013 18:16 10,6 C 9,4 C 81 % 1008,1 hPa 0,0 l/m 0 min 0 min 0,0 UV-I 26 W/m 0,0 km/h (0 Bft)
10.10.2013 18:18 10,6 C 9,4 C 81 % 1008,2 hPa 0,0 l/m 0 min 0 min 0,0 UV-I 26 W/m 0,0 km/h (0 Bft)
10.10.2013 18:20 10,5 C 9,4 C 80 % 1008,2 hPa 0,0 l/m 0 min 0 min 0,0 UV-I 26 W/m 0,0 km/h (0 Bft)
10.10.2013 18:22 10,4 C 9,4 C 80 % 1008,1 hPa 0,0 l/m 0 min 0 min 0,0 UV-I 30 W/m 0,0 km/h (0 Bft)
10.10.2013 18:24 10,4 C 9,4 C 80 % 1008,2 hPa 0,0 l/m 0 min 0 min 0,0 UV-I 32 W/m 0,0 km/h (0 Bft)
10.10.2013 18:26 10,4 C 9,4 C 81 % 1008,1 hPa 0,0 l/m 0 min 0 min 0,0 UV-I 30 W/m 0,0 km/h (0 Bft)
10.10.2013 18:28 10,4 C 9,4 C 80 % 1008,2 hPa 0,0 l/m 2 min 0 min 0,0 UV-I 28 W/m 0,0 km/h (0 Bft)
10.10.2013 18:30 10,4 C 9,4 C 80 % 1008,2 hPa 0,0 l/m 2 min 0 min 0,0 UV-I 28 W/m 0,0 km/h (0 Bft)
10.10.2013 18:32 10,4 C 9,4 C 80 % 1008,3 hPa 0,0 l/m 2 min 0 min 0,0 UV-I 23 W/m 0,0 km/h (0 Bft)
10.10.2013 18:34 10,4 C 8,9 C 80 % 1008,4 hPa 0,0 l/m 0 min 0 min 0,0 UV-I 18 W/m 0,0 km/h (0 Bft)
10.10.2013 18:36 10,4 C 8,9 C 80 % 1008,3 hPa 0,0 l/m 0 min 0 min 0,0 UV-I 14 W/m 0,0 km/h (0 Bft)
10.10.2013 18:38 10,3 C 8,9 C 80 % 1008,2 hPa 0,0 l/m 0 min 0 min 0,0 UV-I 14 W/m 0,0 km/h (0 Bft)
10.10.2013 18:40 10,3 C 8,9 C 81 % 1008,2 hPa 0,0 l/m 0 min 0 min 0,0 UV-I 12 W/m 0,0 km/h (0 Bft)
10.10.2013 18:42 10,3 C 8,9 C 81 % 1008,2 hPa 0,0 l/m 0 min 0 min 0,0 UV-I 9 W/m 0,0 km/h (0 Bft)
10.10.2013 18:44 10,2 C 8,9 C 81 % 1008,3 hPa 0,0 l/m 0 min 0 min 0,0 UV-I 9 W/m 0,0 km/h (0 Bft)
10.10.2013 18:46 10,2 C 8,9 C 82 % 1008,3 hPa 0,0 l/m 0 min 0 min 0,0 UV-I 7 W/m 0,0 km/h (0 Bft)
10.10.2013 18:48 10,1 C 8,9 C 83 % 1008,4 hPa 0,0 l/m 0 min 0 min 0,0 UV-I 5 W/m 0,0 km/h (0 Bft)
10.10.2013 18:50 10,1 C 8,3 C 83 % 1008,3 hPa 0,0 l/m 0 min 0 min 0,0 UV-I 5 W/m 0,0 km/h (0 Bft)
10.10.2013 18:52 9,9 C 8,3 C 84 % 1008,3 hPa 0,0 l/m 0 min 0 min 0,0 UV-I 0 W/m 0,0 km/h (0 Bft)
10.10.2013 18:54 9,9 C 8,3 C 84 % 1008,4 hPa 0,0 l/m 0 min 0 min 0,0 UV-I 0 W/m 0,0 km/h (0 Bft)
10.10.2013 18:56 9,8 C 7,8 C 84 % 1008,5 hPa 0,0 l/m 0 min 0 min 0,0 UV-I 0 W/m 0,0 km/h (0 Bft)
10.10.2013 18:58 9,8 C 7,8 C 84 % 1008,4 hPa 0,0 l/m 0 min 0 min 0,0 UV-I 0 W/m 0,0 km/h (0 Bft)
10.10.2013 19:00 9,8 C 7,8 C 84 % 1008,4 hPa 0,0 l/m 0 min 0 min 0,0 UV-I 0 W/m 0,0 km/h (0 Bft)
10.10.2013 19:02 9,7 C 7,8 C 85 % 1008,4 hPa 0,0 l/m 0 min 0 min 0,0 UV-I 0 W/m 0,0 km/h (0 Bft)
10.10.2013 19:06 9,6 C 7,8 C 85 % 1008,4 hPa 0,0 l/m 0 min 0 min 0,0 UV-I 0 W/m 0,0 km/h (0 Bft)
10.10.2013 19:08 9,6 C 7,8 C 86 % 1008,4 hPa 0,0 l/m 0 min 0 min 0,0 UV-I 0 W/m 0,0 km/h (0 Bft)
10.10.2013 19:10 9,5 C 7,8 C 86 % 1008,5 hPa 0,0 l/m 0 min 0 min 0,0 UV-I 0 W/m 0,0 km/h (0 Bft)
10.10.2013 19:12 9,4 C 7,8 C 86 % 1008,5 hPa 0,0 l/m 0 min 0 min 0,0 UV-I 0 W/m 0,0 km/h (0 Bft)
10.10.2013 19:14 9,4 C 7,8 C 86 % 1008,5 hPa 0,0 l/m 0 min 0 min 0,0 UV-I 0 W/m 0,0 km/h (0 Bft)
10.10.2013 19:16 9,3 C 7,2 C 87 % 1008,6 hPa 0,0 l/m 0 min 0 min 0,0 UV-I 0 W/m 0,0 km/h (0 Bft)
10.10.2013 19:18 9,3 C 7,2 C 87 % 1008,6 hPa 0,0 l/m 0 min 0 min 0,0 UV-I 0 W/m 0,0 km/h (0 Bft)
10.10.2013 19:20 9,3 C 7,2 C 87 % 1008,6 hPa 0,0 l/m 0 min 0 min 0,0 UV-I 0 W/m 0,0 km/h (0 Bft)
10.10.2013 19:22 9,2 C 7,2 C 88 % 1008,6 hPa 0,0 l/m 0 min 0 min 0,0 UV-I 0 W/m 0,0 km/h (0 Bft)
10.10.2013 19:24 9,2 C 7,2 C 88 % 1008,6 hPa 0,0 l/m 0 min 0 min 0,0 UV-I 0 W/m 0,0 km/h (0 Bft)
10.10.2013 19:26 9,1 C 7,2 C 88 % 1008,6 hPa 0,0 l/m 0 min 0 min 0,0 UV-I 0 W/m 0,0 km/h (0 Bft)
10.10.2013 19:28 9,0 C 7,2 C 88 % 1008,6 hPa 0,0 l/m 0 min 0 min 0,0 UV-I 0 W/m 0,0 km/h (0 Bft)
10.10.2013 19:30 8,9 C 7,2 C 88 % 1008,6 hPa 0,0 l/m 0 min 0 min 0,0 UV-I 0 W/m 0,0 km/h (0 Bft)
10.10.2013 19:32 8,8 C 6,7 C 89 % 1008,7 hPa 0,0 l/m 0 min 0 min 0,0 UV-I 0 W/m 0,0 km/h (0 Bft)
10.10.2013 19:34 8,7 C 6,7 C 89 % 1008,6 hPa 0,0 l/m 0 min 0 min 0,0 UV-I 0 W/m 0,0 km/h (0 Bft)
10.10.2013 19:36 8,7 C 6,7 C 89 % 1008,7 hPa 0,0 l/m 0 min 0 min 0,0 UV-I 0 W/m 0,0 km/h (0 Bft)
10.10.2013 19:38 8,6 C 6,7 C 90 % 1008,7 hPa 0,0 l/m 0 min 0 min 0,0 UV-I 0 W/m 0,0 km/h (0 Bft)
10.10.2013 19:40 8,6 C 6,7 C 90 % 1008,7 hPa 0,0 l/m 0 min 0 min 0,0 UV-I 0 W/m 0,0 km/h (0 Bft)
10.10.2013 19:42 8,6 C 6,7 C 90 % 1008,7 hPa 0,0 l/m 0 min 0 min 0,0 UV-I 0 W/m 0,0 km/h (0 Bft)
10.10.2013 19:44 8,5 C 6,7 C 91 % 1008,7 hPa 0,0 l/m 0 min 0 min 0,0 UV-I 0 W/m 0,0 km/h (0 Bft)
10.10.2013 19:46 8,4 C 6,7 C 91 % 1008,7 hPa 0,0 l/m 0 min 0 min 0,0 UV-I 0 W/m 0,0 km/h (0 Bft)
10.10.2013 19:48 8,4 C 6,7 C 91 % 1008,8 hPa 0,0 l/m 0 min 0 min 0,0 UV-I 0 W/m 0,0 km/h (0 Bft)
10.10.2013 19:50 8,4 C 6,7 C 91 % 1008,7 hPa 0,0 l/m 0 min 0 min 0,0 UV-I 0 W/m 0,0 km/h (0 Bft)
10.10.2013 19:52 8,4 C 6,7 C 91 % 1008,7 hPa 0,0 l/m 0 min 0 min 0,0 UV-I 0 W/m 0,0 km/h (0 Bft)
10.10.2013 19:54 8,4 C 6,7 C 92 % 1008,8 hPa 0,0 l/m 0 min 0 min 0,0 UV-I 0 W/m 0,0 km/h (0 Bft)
10.10.2013 19:56 8,4 C 6,7 C 92 % 1008,8 hPa 0,0 l/m 0 min 0 min 0,0 UV-I 0 W/m 0,0 km/h (0 Bft)
10.10.2013 19:58 8,4 C 6,7 C 92 % 1008,8 hPa 0,0 l/m 0 min 0 min 0,0 UV-I 0 W/m 0,0 km/h (0 Bft)
10.10.2013 20:00 8,4 C 6,7 C 92 % 1008,9 hPa 0,0 l/m 0 min 0 min 0,0 UV-I 0 W/m 0,0 km/h (0 Bft)
10.10.2013 20:02 8,4 C 6,7 C 92 % 1008,9 hPa 0,0 l/m 0 min 0 min 0,0 UV-I 0 W/m 0,0 km/h (0 Bft)
10.10.2013 20:06 8,4 C 6,7 C 92 % 1008,8 hPa 0,0 l/m 0 min 0 min 0,0 UV-I 0 W/m 0,0 km/h (0 Bft)
10.10.2013 20:08 8,3 C 6,7 C 92 % 1008,8 hPa 0,0 l/m 0 min 0 min 0,0 UV-I 0 W/m 0,0 km/h (0 Bft)
10.10.2013 20:10 8,3 C 6,7 C 92 % 1008,8 hPa 0,0 l/m 0 min 0 min 0,0 UV-I 0 W/m 0,0 km/h (0 Bft)
10.10.2013 20:12 8,3 C 6,7 C 92 % 1008,8 hPa 0,0 l/m 0 min 0 min 0,0 UV-I 0 W/m 0,0 km/h (0 Bft)
10.10.2013 20:14 8,3 C 6,7 C 92 % 1008,9 hPa 0,0 l/m 0 min 0 min 0,0 UV-I 0 W/m 0,0 km/h (0 Bft)
10.10.2013 20:16 8,3 C 6,7 C 92 % 1008,9 hPa 0,0 l/m 0 min 0 min 0,0 UV-I 0 W/m 0,0 km/h (0 Bft)
10.10.2013 20:18 8,3 C 6,7 C 92 % 1008,8 hPa 0,0 l/m 0 min 0 min 0,0 UV-I 0 W/m 0,0 km/h (0 Bft)
10.10.2013 20:20 8,2 C 6,7 C 92 % 1008,8 hPa 0,0 l/m 0 min 0 min 0,0 UV-I 0 W/m 0,0 km/h (0 Bft)
10.10.2013 20:22 8,2 C 6,7 C 93 % 1008,8 hPa 0,0 l/m 0 min 0 min 0,0 UV-I 0 W/m 0,0 km/h (0 Bft)
10.10.2013 20:24 8,2 C 6,7 C 93 % 1008,8 hPa 0,0 l/m 0 min 0 min 0,0 UV-I 0 W/m 0,0 km/h (0 Bft)
10.10.2013 20:26 8,1 C 6,7 C 93 % 1008,8 hPa 0,0 l/m 0 min 0 min 0,0 UV-I 0 W/m 0,0 km/h (0 Bft)
10.10.2013 20:28 8,1 C 6,7 C 93 % 1008,8 hPa 0,0 l/m 0 min 0 min 0,0 UV-I 0 W/m 0,0 km/h (0 Bft)
10.10.2013 20:30 8,1 C 6,7 C 93 % 1008,8 hPa 0,0 l/m 0 min 0 min 0,0 UV-I 0 W/m 0,0 km/h (0 Bft)
10.10.2013 20:32 8,0 C 6,7 C 93 % 1008,8 hPa 0,0 l/m 0 min 0 min 0,0 UV-I 0 W/m 0,0 km/h (0 Bft)
10.10.2013 20:34 8,1 C 6,7 C 93 % 1008,8 hPa 0,0 l/m 0 min 0 min 0,0 UV-I 0 W/m 0,0 km/h (0 Bft)
10.10.2013 20:36 8,1 C 6,7 C 93 % 1008,8 hPa 0,0 l/m 0 min 0 min 0,0 UV-I 0 W/m 0,0 km/h (0 Bft)
10.10.2013 20:38 8,1 C 6,7 C 93 % 1008,8 hPa 0,0 l/m 0 min 0 min 0,0 UV-I 0 W/m 0,0 km/h (0 Bft)
10.10.2013 20:40 8,1 C 6,7 C 93 % 1008,8 hPa 0,0 l/m 0 min 0 min 0,0 UV-I 0 W/m 0,0 km/h (0 Bft)
10.10.2013 20:42 8,1 C 6,7 C 94 % 1008,9 hPa 0,0 l/m 0 min 0 min 0,0 UV-I 0 W/m 0,0 km/h (0 Bft)
10.10.2013 20:44 8,1 C 6,7 C 94 % 1008,8 hPa 0,0 l/m 0 min 0 min 0,0 UV-I 0 W/m 0,0 km/h (0 Bft)
10.10.2013 20:46 8,1 C 6,7 C 94 % 1008,8 hPa 0,0 l/m 0 min 0 min 0,0 UV-I 0 W/m 0,0 km/h (0 Bft)
10.10.2013 20:48 8,1 C 6,7 C 94 % 1008,8 hPa 0,0 l/m 0 min 0 min 0,0 UV-I 0 W/m 0,0 km/h (0 Bft)
10.10.2013 20:50 8,1 C 6,7 C 94 % 1008,8 hPa 0,0 l/m 0 min 0 min 0,0 UV-I 0 W/m 0,0 km/h (0 Bft)
10.10.2013 20:52 8,1 C 6,7 C 94 % 1008,8 hPa 0,0 l/m 0 min 0 min 0,0 UV-I 0 W/m 0,0 km/h (0 Bft)
10.10.2013 20:54 8,0 C 6,7 C 94 % 1008,7 hPa 0,0 l/m 0 min 0 min 0,0 UV-I 0 W/m 0,0 km/h (0 Bft)
10.10.2013 20:56 8,0 C 6,7 C 94 % 1008,8 hPa 0,0 l/m 0 min 0 min 0,0 UV-I 0 W/m 0,0 km/h (0 Bft)
10.10.2013 20:58 8,0 C 6,7 C 94 % 1008,8 hPa 0,0 l/m 0 min 0 min 0,0 UV-I 0 W/m 0,0 km/h (0 Bft)
10.10.2013 21:00 8,0 C 6,7 C 94 % 1008,8 hPa 0,0 l/m 0 min 0 min 0,0 UV-I 0 W/m 0,0 km/h (0 Bft)
10.10.2013 21:02 8,1 C 6,7 C 94 % 1008,8 hPa 0,0 l/m 0 min 0 min 0,0 UV-I 0 W/m 0,0 km/h (0 Bft)
10.10.2013 21:06 8,1 C 6,7 C 94 % 1008,8 hPa 0,0 l/m 0 min 0 min 0,0 UV-I 0 W/m 0,0 km/h (0 Bft)
10.10.2013 21:08 8,1 C 6,7 C 95 % 1008,8 hPa 0,0 l/m 0 min 0 min 0,0 UV-I 0 W/m 0,0 km/h (0 Bft)
10.10.2013 21:10 8,1 C 6,7 C 95 % 1008,8 hPa 0,0 l/m 0 min 0 min 0,0 UV-I 0 W/m 0,0 km/h (0 Bft)
10.10.2013 21:12 8,1 C 6,7 C 95 % 1008,8 hPa 0,0 l/m 0 min 0 min 0,0 UV-I 0 W/m 0,0 km/h (0 Bft)
10.10.2013 21:14 8,1 C 6,7 C 95 % 1008,7 hPa 0,0 l/m 0 min 0 min 0,0 UV-I 0 W/m 0,0 km/h (0 Bft)
10.10.2013 21:16 8,1 C 6,7 C 95 % 1008,7 hPa 0,0 l/m 0 min 0 min 0,0 UV-I 0 W/m 0,0 km/h (0 Bft)
10.10.2013 21:18 8,2 C 6,7 C 95 % 1008,8 hPa 0,0 l/m 0 min 0 min 0,0 UV-I 0 W/m 0,0 km/h (0 Bft)
10.10.2013 21:20 8,2 C 6,7 C 95 % 1008,7 hPa 0,0 l/m 0 min 0 min 0,0 UV-I 0 W/m 0,0 km/h (0 Bft)
10.10.2013 21:22 8,2 C 6,7 C 95 % 1008,8 hPa 0,0 l/m 0 min 0 min 0,0 UV-I 0 W/m 0,0 km/h (0 Bft)
10.10.2013 21:24 8,2 C 6,7 C 94 % 1008,7 hPa 0,0 l/m 0 min 0 min 0,0 UV-I 0 W/m 0,0 km/h (0 Bft)
10.10.2013 21:26 8,2 C 6,7 C 94 % 1008,8 hPa 0,0 l/m 0 min 0 min 0,0 UV-I 0 W/m 0,0 km/h (0 Bft)
10.10.2013 21:28 8,1 C 6,7 C 94 % 1008,8 hPa 0,0 l/m 0 min 0 min 0,0 UV-I 0 W/m 0,0 km/h (0 Bft)
10.10.2013 21:30 8,1 C 6,7 C 94 % 1008,8 hPa 0,0 l/m 0 min 0 min 0,0 UV-I 0 W/m 0,0 km/h (0 Bft)
10.10.2013 21:32 8,1 C 6,7 C 94 % 1008,9 hPa 0,0 l/m 0 min 0 min 0,0 UV-I 0 W/m 0,0 km/h (0 Bft)
10.10.2013 21:34 8,1 C 6,7 C 94 % 1008,9 hPa 0,0 l/m 0 min 0 min 0,0 UV-I 0 W/m 0,0 km/h (0 Bft)
10.10.2013 21:36 8,1 C 6,7 C 94 % 1008,9 hPa 0,0 l/m 0 min 0 min 0,0 UV-I 0 W/m 0,0 km/h (0 Bft)
10.10.2013 21:38 8,1 C 6,7 C 94 % 1008,9 hPa 0,0 l/m 0 min 0 min 0,0 UV-I 0 W/m 0,0 km/h (0 Bft)
10.10.2013 21:40 8,1 C 6,7 C 94 % 1009,0 hPa 0,0 l/m 0 min 0 min 0,0 UV-I 0 W/m 0,0 km/h (0 Bft)
10.10.2013 21:42 8,1 C 6,7 C 94 % 1009,0 hPa 0,0 l/m 0 min 0 min 0,0 UV-I 0 W/m 0,0 km/h (0 Bft)
10.10.2013 21:44 8,1 C 6,7 C 95 % 1009,0 hPa 0,0 l/m 0 min 0 min 0,0 UV-I 0 W/m 0,0 km/h (0 Bft)
10.10.2013 21:46 8,1 C 6,7 C 95 % 1009,0 hPa 0,0 l/m 0 min 0 min 0,0 UV-I 0 W/m 0,0 km/h (0 Bft)
10.10.2013 21:48 8,1 C 7,2 C 95 % 1009,0 hPa 0,0 l/m 0 min 0 min 0,0 UV-I 0 W/m 0,0 km/h (0 Bft)
10.10.2013 21:50 8,1 C 7,2 C 95 % 1009,1 hPa 0,0 l/m 0 min 0 min 0,0 UV-I 0 W/m 0,0 km/h (0 Bft)
10.10.2013 21:52 8,1 C 7,2 C 95 % 1009,1 hPa 0,0 l/m 0 min 0 min 0,0 UV-I 0 W/m 0,0 km/h (0 Bft)
10.10.2013 21:54 8,2 C 7,2 C 99 % 1009,1 hPa 0,0 l/m 0 min 0 min 0,0 UV-I 0 W/m 2,6 km/h (1 Bft)
10.10.2013 21:56 8,2 C 7,2 C 95 % 1009,1 hPa 0,0 l/m 0 min 0 min 0,0 UV-I 0 W/m 0,0 km/h (0 Bft)
10.10.2013 21:58 8,2 C 7,2 C 95 % 1009,2 hPa 0,0 l/m 0 min 0 min 0,0 UV-I 0 W/m 0,0 km/h (0 Bft)
10.10.2013 22:00 8,2 C 7,2 C 95 % 1009,2 hPa 0,0 l/m 0 min 0 min 0,0 UV-I 0 W/m 0,0 km/h (0 Bft)
10.10.2013 22:02 8,3 C 7,2 C 95 % 1009,2 hPa 0,0 l/m 0 min 0 min 0,0 UV-I 0 W/m 0,0 km/h (0 Bft)
10.10.2013 22:06 8,3 C 7,2 C 95 % 1009,3 hPa 0,0 l/m 0 min 0 min 0,0 UV-I 0 W/m 2,6 km/h (1 Bft)
10.10.2013 22:08 8,3 C 7,2 C 95 % 1009,3 hPa 0,0 l/m 0 min 0 min 0,0 UV-I 0 W/m 2,6 km/h (1 Bft)
10.10.2013 22:10 8,3 C 7,2 C 95 % 1009,3 hPa 0,0 l/m 0 min 0 min 0,0 UV-I 0 W/m 0,0 km/h (0 Bft)
10.10.2013 22:12 8,3 C 7,2 C 95 % 1009,3 hPa 0,0 l/m 0 min 0 min 0,0 UV-I 0 W/m 0,0 km/h (0 Bft)
10.10.2013 22:14 8,4 C 7,2 C 94 % 1009,4 hPa 0,0 l/m 0 min 0 min 0,0 UV-I 0 W/m 0,0 km/h (0 Bft)
10.10.2013 22:16 8,4 C 7,2 C 94 % 1009,4 hPa 0,0 l/m 0 min 0 min 0,0 UV-I 0 W/m 0,0 km/h (0 Bft)
10.10.2013 22:18 8,4 C 7,2 C 94 % 1009,4 hPa 0,0 l/m 0 min 0 min 0,0 UV-I 0 W/m 0,0 km/h (0 Bft)
10.10.2013 22:20 8,4 C 7,8 C 94 % 1009,4 hPa 0,0 l/m 0 min 0 min 0,0 UV-I 0 W/m 0,0 km/h (0 Bft)
10.10.2013 22:22 8,4 C 7,8 C 94 % 1009,4 hPa 0,0 l/m 0 min 0 min 0,0 UV-I 0 W/m 0,0 km/h (0 Bft)
10.10.2013 22:24 8,4 C 7,8 C 94 % 1009,4 hPa 0,0 l/m 0 min 0 min 0,0 UV-I 0 W/m 2,6 km/h (1 Bft)
10.10.2013 22:26 8,4 C 7,8 C 94 % 1009,4 hPa 0,0 l/m 0 min 0 min 0,0 UV-I 0 W/m 0,0 km/h (0 Bft)
10.10.2013 22:28 8,4 C 7,8 C 94 % 1009,5 hPa 0,0 l/m 0 min 0 min 0,0 UV-I 0 W/m 0,0 km/h (0 Bft)
10.10.2013 22:30 8,5 C 7,8 C 94 % 1009,4 hPa 0,0 l/m 0 min 0 min 0,0 UV-I 0 W/m 0,0 km/h (0 Bft)
10.10.2013 22:32 8,5 C 7,8 C 94 % 1009,4 hPa 0,0 l/m 0 min 0 min 0,0 UV-I 0 W/m 0,0 km/h (0 Bft)
10.10.2013 22:34 8,5 C 7,8 C 94 % 1009,5 hPa 0,0 l/m 0 min 0 min 0,0 UV-I 0 W/m 2,6 km/h (1 Bft)
10.10.2013 22:36 8,5 C 7,8 C 94 % 1009,4 hPa 0,0 l/m 0 min 0 min 0,0 UV-I 0 W/m 0,0 km/h (0 Bft)
10.10.2013 22:38 8,6 C 7,8 C 93 % 1009,4 hPa 0,0 l/m 0 min 0 min 0,0 UV-I 0 W/m 0,0 km/h (0 Bft)
10.10.2013 22:40 8,6 C 7,8 C 93 % 1009,5 hPa 0,0 l/m 0 min 0 min 0,0 UV-I 0 W/m 0,0 km/h (0 Bft)
10.10.2013 22:42 8,6 C 7,8 C 93 % 1009,6 hPa 0,0 l/m 0 min 0 min 0,0 UV-I 0 W/m 2,6 km/h (1 Bft)
10.10.2013 22:44 8,6 C 7,8 C 93 % 1009,7 hPa 0,0 l/m 0 min 0 min 0,0 UV-I 0 W/m 0,0 km/h (0 Bft)
10.10.2013 22:46 8,6 C 7,8 C 93 % 1009,7 hPa 0,0 l/m 0 min 0 min 0,0 UV-I 0 W/m 7,7 km/h (2 Bft)
10.10.2013 22:48 8,6 C 7,8 C 93 % 1009,8 hPa 0,0 l/m 0 min 0 min 0,0 UV-I 0 W/m 0,0 km/h (0 Bft)
10.10.2013 22:50 8,6 C 7,8 C 93 % 1009,7 hPa 0,0 l/m 0 min 0 min 0,0 UV-I 0 W/m 5,1 km/h (1 Bft)
10.10.2013 22:52 8,6 C 7,8 C 93 % 1009,7 hPa 0,0 l/m 0 min 0 min 0,0 UV-I 0 W/m 10,3 km/h (2 Bft)
10.10.2013 22:54 8,6 C 7,8 C 93 % 1009,7 hPa 0,0 l/m 0 min 0 min 0,0 UV-I 0 W/m 7,7 km/h (2 Bft)
10.10.2013 22:56 8,6 C 7,8 C 93 % 1009,8 hPa 0,0 l/m 0 min 0 min 0,0 UV-I 0 W/m 2,6 km/h (1 Bft)
10.10.2013 22:58 8,6 C 7,8 C 93 % 1009,7 hPa 0,0 l/m 0 min 0 min 0,0 UV-I 0 W/m 5,1 km/h (1 Bft)
10.10.2013 23:00 8,6 C 7,8 C 93 % 1009,7 hPa 0,0 l/m 0 min 0 min 0,0 UV-I 0 W/m 0,0 km/h (0 Bft)
10.10.2013 23:02 8,6 C 7,8 C 93 % 1009,8 hPa 0,0 l/m 0 min 0 min 0,0 UV-I 0 W/m 2,6 km/h (1 Bft)
10.10.2013 23:06 8,6 C 7,8 C 93 % 1009,8 hPa 0,0 l/m 0 min 0 min 0,0 UV-I 0 W/m 2,6 km/h (1 Bft)
10.10.2013 23:08 8,6 C 7,8 C 93 % 1009,9 hPa 0,0 l/m 0 min 0 min 0,0 UV-I 0 W/m 7,7 km/h (2 Bft)
10.10.2013 23:10 8,6 C 7,8 C 93 % 1009,8 hPa 0,0 l/m 0 min 0 min 0,0 UV-I 0 W/m 2,6 km/h (1 Bft)
10.10.2013 23:12 8,6 C 7,8 C 93 % 1009,9 hPa 0,0 l/m 0 min 2 min 0,0 UV-I 0 W/m 2,6 km/h (1 Bft)
10.10.2013 23:14 8,6 C 7,8 C 93 % 1010,0 hPa 0,0 l/m 0 min 2 min 0,0 UV-I 0 W/m 0,0 km/h (0 Bft)
10.10.2013 23:16 8,6 C 7,2 C 93 % 1010,0 hPa 0,0 l/m 0 min 2 min 0,0 UV-I 0 W/m 0,0 km/h (0 Bft)
10.10.2013 23:18 8,6 C 7,2 C 93 % 1010,0 hPa 0,0 l/m 0 min 2 min 0,0 UV-I 0 W/m 5,1 km/h (1 Bft)
10.10.2013 23:20 8,5 C 7,2 C 93 % 1010,0 hPa 0,0 l/m 0 min 2 min 0,0 UV-I 0 W/m 5,1 km/h (1 Bft)
10.10.2013 23:22 8,5 C 7,2 C 93 % 1009,9 hPa 0,0 l/m 0 min 0 min 0,0 UV-I 0 W/m 0,0 km/h (0 Bft)
10.10.2013 23:24 8,4 C 7,2 C 93 % 1010,0 hPa 0,0 l/m 0 min 2 min 0,0 UV-I 0 W/m 5,1 km/h (1 Bft)
10.10.2013 23:26 8,4 C 7,2 C 93 % 1010,0 hPa 0,0 l/m 0 min 2 min 0,0 UV-I 0 W/m 0,0 km/h (0 Bft)
10.10.2013 23:28 8,3 C 7,2 C 92 % 1010,1 hPa 0,0 l/m 0 min 2 min 0,0 UV-I 0 W/m 0,0 km/h (0 Bft)
10.10.2013 23:30 8,3 C 7,2 C 92 % 1010,1 hPa 0,0 l/m 0 min 2 min 0,0 UV-I 0 W/m 0,0 km/h (0 Bft)
10.10.2013 23:32 8,2 C 6,7 C 92 % 1010,1 hPa 0,0 l/m 0 min 2 min 0,0 UV-I 0 W/m 0,0 km/h (0 Bft)
10.10.2013 23:34 8,2 C 6,7 C 92 % 1010,0 hPa 0,0 l/m 0 min 0 min 0,0 UV-I 0 W/m 5,1 km/h (1 Bft)
10.10.2013 23:36 8,2 C 6,7 C 92 % 1010,0 hPa 0,0 l/m 0 min 2 min 0,0 UV-I 0 W/m 0,0 km/h (0 Bft)
10.10.2013 23:38 8,1 C 6,7 C 93 % 1010,0 hPa 0,0 l/m 0 min 0 min 0,0 UV-I 0 W/m 0,0 km/h (0 Bft)
10.10.2013 23:40 8,1 C 6,7 C 92 % 1010,0 hPa 0,0 l/m 0 min 0 min 0,0 UV-I 0 W/m 0,0 km/h (0 Bft)
10.10.2013 23:42 8,0 C 6,7 C 93 % 1010,1 hPa 0,0 l/m 0 min 0 min 0,0 UV-I 0 W/m 0,0 km/h (0 Bft)
10.10.2013 23:44 8,0 C 6,7 C 93 % 1010,1 hPa 0,0 l/m 0 min 0 min 0,0 UV-I 0 W/m 2,6 km/h (1 Bft)
10.10.2013 23:46 7,9 C 6,7 C 93 % 1010,1 hPa 0,0 l/m 0 min 0 min 0,0 UV-I 0 W/m 0,0 km/h (0 Bft)
10.10.2013 23:48 7,9 C 6,7 C 93 % 1010,0 hPa 0,0 l/m 0 min 0 min 0,0 UV-I 0 W/m 2,6 km/h (1 Bft)
10.10.2013 23:50 7,8 C 6,7 C 93 % 1010,0 hPa 0,0 l/m 0 min 0 min 0,0 UV-I 0 W/m 0,0 km/h (0 Bft)
10.10.2013 23:52 7,8 C 6,7 C 93 % 1010,1 hPa 0,0 l/m 0 min 0 min 0,0 UV-I 0 W/m 2,6 km/h (1 Bft)
10.10.2013 23:54 7,8 C 6,7 C 93 % 1010,2 hPa 0,0 l/m 0 min 0 min 0,0 UV-I 0 W/m 2,6 km/h (1 Bft)
10.10.2013 23:56 7,8 C 6,7 C 94 % 1010,2 hPa 0,0 l/m 0 min 0 min 0,0 UV-I 0 W/m 7,7 km/h (2 Bft)
10.10.2013 23:58 7,8 C 6,7 C 94 % 1010,2 hPa 0,0 l/m 0 min 0 min 0,0 UV-I 0 W/m 7,7 km/h (2 Bft)
_ Min-Zeit 08:54 07:10 16:58 07:34 - - - - - 00:08
Minimum _ 6,4 C 5,6 C 70 % 1006,9 hPa - - - - - 0,0 km/h (0 Bft)
_ Max-Zeit 16:54 14:12 21:54 23:54 00:50 09:06 00:00 13:52 12:38 00:58
Maximum _ 12,2 C 11,1 C 99 % 1010,2 hPa 0,4 l/m 2 min 2 min 1,3 UV-I 700 W/m 28,3 km/h
N-NW (4 Bft)
Durchschnitt _ 8,9 C 7,8 C 91 % 1008,2 hPa #5,4 l/m #2:34 h #4:21 h 0,8 UV-I 162 W/m 1,8 km/h (1 Bft)
© 2013 W. Hausmann